<- Previous Day | Today | Next Day ->

All Data for 14 January 2022

 

Time A - D Temp A - D Dew Point A - D Humidity A - D Pressure A - D Wind A - D Wind Dir Gust A - D Rain Rate A - D Rain Total
00:00 7.0 5.8 92 1035.8 3.8 N 4.5 0.0 0.0
00:01 7.0 5.8 92 1035.5 3.8 N 4.5 0.0 0.0
00:02 7.0 5.8 92 1035.6 4.5 NE 4.5 0.0 0.0
00:03 7.0 5.8 92 1035.5 3.8 WNW 4.5 0.0 0.0
00:04 7.0 5.8 92 1035.5 2.2 NW 4.5 0.0 0.0
00:05 7.0 5.8 92 1035.5 2.2 NE 4.5 0.0 0.0
00:06 6.9 5.7 92 1035.6 2.2 NE 4.5 0.0 0.0
00:07 6.9 5.7 92 1035.6 1.6 NE 4.5 0.0 0.0
00:08 6.9 5.7 92 1035.6 4.5 E 4.5 0.0 0.0
00:09 6.9 5.7 92 1035.5 3.1 NW 4.5 0.0 0.0
00:10 6.9 5.7 92 1035.6 1.6 N 4.5 0.0 0.0
00:11 6.9 5.7 92 1035.7 1.6 N 4.5 0.0 0.0
00:12 6.9 5.7 92 1035.4 1.6 NW 4.5 0.0 0.0
00:13 6.9 5.7 92 1035.4 1.6 SE 4.5 0.0 0.0
00:14 6.9 5.7 92 1035.3 1.6 N 4.5 0.0 0.0
00:15 6.9 5.7 92 1035.5 0.7 E 4.5 0.0 0.0
00:16 6.9 5.7 92 1035.4 4.5 E 4.5 0.0 0.0
00:17 6.8 5.6 92 1035.4 2.2 NNE 4.5 0.0 0.0
00:18 6.8 5.6 92 1035.5 1.6 NW 4.5 0.0 0.0
00:19 6.8 5.6 92 1035.6 2.2 NW 4.5 0.0 0.0
00:21 6.7 5.5 92 1035.4 3.1 W 4.5 0.0 0.0
00:22 6.7 5.5 92 1035.5 2.2 N 4.5 0.0 0.0
00:23 6.7 5.5 92 1035.3 2.2 NE 4.5 0.0 0.0
00:24 6.7 5.5 92 1035.4 3.1 NE 4.5 0.0 0.0
00:25 6.7 5.5 92 1035.4 2.2 N 4.5 0.0 0.0
00:26 6.7 5.5 92 1035.2 2.2 W 4.5 0.0 0.0
00:27 6.7 5.5 92 1035.2 2.2 W 3.1 0.0 0.0
00:28 6.7 5.5 92 1035.2 3.1 NE 3.1 0.0 0.0
00:29 6.7 5.5 92 1035.2 3.1 NW 3.1 0.0 0.0
00:30 6.7 5.5 92 1035.3 3.1 NW 3.1 0.0 0.0
00:31 6.7 5.5 92 1035.2 3.8 NE 3.8 0.0 0.0
00:32 6.7 5.5 92 1035.2 3.1 NE 3.8 0.0 0.0
00:33 6.7 5.5 92 1035.3 3.8 NW 3.8 0.0 0.0
00:34 6.7 5.5 92 1035.4 3.8 E 3.8 0.0 0.0
00:35 6.7 5.5 92 1035.3 1.6 N 3.8 0.0 0.0
00:36 6.7 5.5 92 1035.1 3.1 NW 3.8 0.0 0.0
00:37 6.7 5.5 92 1035.1 2.2 NE 3.8 0.0 0.0
00:38 6.7 5.5 92 1035.2 1.6 W 3.8 0.0 0.0
00:39 6.7 5.5 92 1035.2 2.2 E 3.8 0.0 0.0
00:40 6.7 5.5 92 1035.1 2.2 NE 3.8 0.0 0.0
00:41 6.7 5.5 92 1035.1 1.6 NE 3.8 0.0 0.0
00:42 6.7 5.5 92 1035.1 1.6 NE 3.8 0.0 0.0
00:43 6.7 5.5 92 1035.1 2.2 N 3.8 0.0 0.0
00:44 6.7 5.5 92 1035.2 1.6 N 3.8 0.0 0.0
00:45 6.7 5.5 92 1035.2 1.6 N 3.1 0.0 0.0
00:46 6.7 5.5 92 1035.1 0.7 NE 3.1 0.0 0.0
00:47 6.6 5.4 92 1035.1 1.6 NE 3.1 0.0 0.0
00:48 6.7 5.5 92 1035.3 2.2 NE 2.2 0.0 0.0
00:49 6.6 5.4 92 1035.3 1.6 NW 2.2 0.0 0.0
00:50 6.6 5.4 92 1035.0 2.2 NE 2.2 0.0 0.0
00:51 6.6 5.4 92 1035.3 2.2 NE 2.2 0.0 0.0
00:52 6.6 5.4 92 1035.3 2.2 NE 2.2 0.0 0.0
00:53 6.6 5.4 92 1035.0 2.2 E 2.2 0.0 0.0
00:54 6.6 5.4 92 1035.2 3.1 E 3.1 0.0 0.0
00:55 6.6 5.4 92 1035.0 2.2 NE 3.1 0.0 0.0
00:56 6.6 5.4 92 1034.9 1.6 NE 3.1 0.0 0.0
00:57 6.6 5.2 91 1035.1 2.2 E 3.1 0.0 0.0
00:58 6.6 5.2 91 1035.1 1.6 N 3.1 0.0 0.0
00:59 6.6 5.2 91 1034.9 1.6 NE 3.1 0.0 0.0
01:00 6.5 5.1 91 1035.0 1.6 NE 3.1 0.0 0.0
01:01 6.5 5.1 91 1035.1 1.6 NE 3.1 0.0 0.0
01:02 6.5 5.1 91 1034.9 1.6 NE 3.1 0.0 0.0
01:04 6.5 5.1 91 1034.9 2.2 E 3.1 0.0 0.0
01:05 6.5 5.1 91 1035.0 1.6 NW 2.2 0.0 0.0
01:06 6.5 5.1 91 1035.1 0.7 N 2.2 0.0 0.0
01:07 6.5 5.1 91 1035.1 0.7 N 2.2 0.0 0.0
01:08 6.4 5.0 91 1035.1 1.6 NW 2.2 0.0 0.0
01:09 6.4 5.0 91 1035.1 1.6 NE 2.2 0.0 0.0
01:10 6.4 5.0 91 1035.1 1.6 NE 2.2 0.0 0.0
01:11 6.4 5.0 91 1035.0 1.6 NE 2.2 0.0 0.0
01:12 6.4 5.0 91 1035.3 0.7 SW 2.2 0.0 0.0
01:13 6.4 5.0 91 1035.1 0.0 SW 2.2 0.0 0.0
01:14 6.4 5.0 91 1035.0 1.6 SSE 2.2 0.0 0.0
01:15 6.4 5.0 91 1035.1 1.6 E 2.2 0.0 0.0
01:16 6.3 4.9 91 1035.0 0.7 NE 1.6 0.0 0.0
01:18 6.3 4.9 91 1035.2 0.7 SE 1.6 0.0 0.0
01:19 6.3 4.9 91 1034.9 0.7 SE 1.6 0.0 0.0
01:20 6.3 4.9 91 1034.9 0.7 E 1.6 0.0 0.0
01:21 6.2 4.8 91 1034.9 0.7 N 1.6 0.0 0.0
01:22 6.2 4.8 91 1035.0 0.7 N 1.6 0.0 0.0
01:23 6.2 4.8 91 1035.0 0.7 N 1.6 0.0 0.0
01:24 6.1 4.7 91 1035.1 0.0 N 1.6 0.0 0.0
01:25 6.1 4.7 91 1035.0 0.7 NE 0.7 0.0 0.0
01:26 6.1 4.7 91 1035.0 0.7 SSE 0.7 0.0 0.0
01:27 6.1 4.7 91 1034.9 0.7 NE 0.7 0.0 0.0
01:28 6.1 4.7 91 1034.8 1.6 W 1.6 0.0 0.0
01:29 6.0 4.6 91 1034.8 0.7 NW 1.6 0.0 0.0
01:30 6.0 4.6 91 1034.9 0.7 N 1.6 0.0 0.0
01:31 6.1 4.7 91 1035.1 0.7 NE 1.6 0.0 0.0
01:32 6.0 4.6 91 1034.8 1.6 NE 1.6 0.0 0.0
01:33 6.0 4.6 91 1034.9 1.6 NW 1.6 0.0 0.0
01:34 6.0 4.6 91 1034.8 2.2 N 2.2 0.0 0.0
01:35 6.0 4.6 91 1034.9 3.1 NNW 3.1 0.0 0.0
01:36 6.0 4.6 91 1034.8 2.2 E 3.1 0.0 0.0
01:37 6.0 4.6 91 1034.7 1.6 NW 3.1 0.0 0.0
01:38 6.0 4.6 91 1034.7 1.6 NW 3.1 0.0 0.0
01:39 6.1 4.7 91 1034.8 1.6 E 3.1 0.0 0.0
01:40 6.1 4.7 91 1034.7 0.7 E 3.1 0.0 0.0
01:41 6.0 4.6 91 1034.6 2.2 N 3.1 0.0 0.0
01:42 6.1 4.7 91 1034.6 2.2 NE 3.1 0.0 0.0
01:43 6.1 4.7 91 1034.7 2.2 NW 3.1 0.0 0.0
01:44 6.1 4.7 91 1034.8 2.2 NNE 3.1 0.0 0.0
01:45 6.1 4.7 91 1034.9 1.6 NE 3.1 0.0 0.0
01:46 6.1 4.9 92 1034.7 1.6 E 2.2 0.0 0.0
01:47 6.1 4.9 92 1034.8 4.5 N 4.5 0.0 0.0
01:48 6.1 4.9 92 1034.9 2.2 SW 4.5 0.0 0.0
01:49 6.2 5.0 92 1034.7 3.8 W 4.5 0.0 0.0
01:50 6.2 5.0 92 1034.6 3.8 SW 4.5 0.0 0.0
01:51 6.2 5.0 92 1034.7 1.6 NE 4.5 0.0 0.0
01:52 6.2 5.0 92 1034.6 2.2 S 4.5 0.0 0.0
01:53 6.2 5.0 92 1034.8 2.2 NE 4.5 0.0 0.0
01:54 6.2 5.0 92 1034.5 2.2 NE 4.5 0.0 0.0
01:55 6.2 5.0 92 1034.6 2.2 W 4.5 0.0 0.0
01:56 6.3 5.1 92 1034.8 2.2 N 4.5 0.0 0.0
01:57 6.3 5.1 92 1034.5 1.6 ESE 4.5 0.0 0.0
01:58 6.3 5.1 92 1034.6 3.1 N 3.8 0.0 0.0
01:59 6.3 5.1 92 1034.6 1.6 N 3.8 0.0 0.0
02:00 6.3 5.1 92 1034.7 2.2 NW 3.8 0.0 0.0
02:01 6.3 5.1 92 1034.5 2.2 NW 3.1 0.0 0.0
02:02 6.3 5.1 92 1034.6 1.6 NW 3.1 0.0 0.0
02:03 6.3 5.1 92 1034.8 1.6 NW 3.1 0.0 0.0
02:04 6.3 5.1 92 1034.8 0.7 NE 3.1 0.0 0.0
02:05 6.3 5.1 92 1034.4 0.7 SW 3.1 0.0 0.0
02:06 6.3 5.1 92 1034.4 0.7 SW 3.1 0.0 0.0
02:07 6.3 5.1 92 1034.7 0.7 NW 3.1 0.0 0.0
02:08 6.2 5.0 92 1034.4 0.7 NW 3.1 0.0 0.0
02:09 6.2 5.0 92 1034.6 0.7 N 2.2 0.0 0.0
02:10 6.2 5.0 92 1034.6 2.2 NE 2.2 0.0 0.0
02:11 6.2 5.0 92 1034.6 2.2 E 2.2 0.0 0.0
02:12 6.2 5.0 92 1034.4 1.6 NE 2.2 0.0 0.0
02:13 6.2 5.0 92 1034.6 1.6 NE 2.2 0.0 0.0
02:14 6.2 5.0 92 1034.8 2.2 N 2.2 0.0 0.0
02:15 6.2 5.0 92 1034.7 3.1 NE 3.1 0.0 0.0
02:16 6.3 5.1 92 1034.9 2.2 E 3.1 0.0 0.0
02:17 6.3 5.1 92 1034.7 1.6 N 3.1 0.0 0.0
02:18 6.3 5.1 92 1034.7 2.2 NE 3.1 0.0 0.0
02:19 6.3 5.1 92 1034.4 2.2 NE 3.1 0.0 0.0
02:20 6.3 5.1 92 1034.6 3.1 NE 3.1 0.0 0.0
02:21 6.3 5.1 92 1034.7 3.1 NE 3.1 0.0 0.0
02:22 6.3 5.1 92 1034.7 3.1 NE 3.1 0.0 0.0
02:23 6.2 5.0 92 1034.6 3.1 E 3.1 0.0 0.0
02:24 6.2 5.0 92 1034.6 2.2 NE 3.1 0.0 0.0
02:25 6.2 5.0 92 1034.6 2.2 E 3.1 0.0 0.0
02:26 6.2 5.0 92 1034.5 2.2 E 3.1 0.0 0.0
02:27 6.2 5.0 92 1034.4 1.6 NE 3.1 0.0 0.0
02:28 6.1 4.9 92 1034.4 1.6 N 3.1 0.0 0.0
02:29 6.1 4.9 92 1034.3 1.6 NE 3.1 0.0 0.0
02:30 6.1 4.9 92 1034.3 0.7 NE 3.1 0.0 0.0
02:31 6.1 4.9 92 1034.5 0.7 NE 3.1 0.0 0.0
02:32 6.1 4.9 92 1034.3 1.6 E 3.1 0.0 0.0
02:33 6.1 4.9 92 1034.4 2.2 NE 2.2 0.0 0.0
02:34 6.1 4.9 92 1034.6 2.2 NE 2.2 0.0 0.0
02:35 6.1 4.9 92 1034.6 2.2 NE 2.2 0.0 0.0
02:36 6.0 4.8 92 1034.4 3.1 NE 3.1 0.0 0.0
02:37 6.0 4.8 92 1034.4 3.1 NE 3.1 0.0 0.0
02:38 6.0 4.8 92 1034.3 2.2 NE 3.1 0.0 0.0
02:39 6.0 4.8 92 1034.3 3.1 NE 3.1 0.0 0.0
02:40 6.0 4.8 92 1034.4 2.2 NE 3.1 0.0 0.0
02:41 6.0 4.8 92 1034.4 1.6 NE 3.1 0.0 0.0
02:43 6.0 4.8 92 1034.3 2.2 NE 3.8 0.0 0.0
02:44 6.0 4.8 92 1034.5 2.2 NE 3.8 0.0 0.0
02:45 6.0 4.8 92 1034.4 3.1 N 3.8 0.0 0.0
02:46 6.0 4.8 92 1034.4 3.1 NE 3.8 0.0 0.0
02:47 6.0 4.8 92 1034.3 3.1 ESE 3.8 0.0 0.0
02:48 6.0 4.8 92 1034.3 2.2 NE 3.8 0.0 0.0
02:49 6.0 4.8 92 1034.5 4.5 E 4.5 0.0 0.0
02:50 6.0 4.8 92 1034.3 4.5 N 4.5 0.0 0.0
02:51 6.0 4.8 92 1034.3 2.2 NE 4.5 0.0 0.0
02:52 6.0 4.8 92 1034.5 3.1 NE 4.5 0.0 0.0
02:53 6.0 4.8 92 1034.4 3.1 NE 4.5 0.0 0.0
02:54 6.0 4.8 92 1034.4 3.1 NE 4.5 0.0 0.0
02:55 6.0 4.8 92 1034.4 3.1 NE 4.5 0.0 0.0
02:56 6.0 4.8 92 1034.3 3.1 NE 4.5 0.0 0.0
02:57 6.0 4.8 92 1034.4 3.8 NE 4.5 0.0 0.0
02:58 6.0 4.8 92 1034.3 3.8 NE 4.5 0.0 0.0
02:59 6.1 4.9 92 1034.4 3.1 NE 4.5 0.0 0.0
03:00 6.1 4.9 92 1034.4 3.1 E 3.8 0.0 0.0
03:01 6.1 4.9 92 1034.3 3.1 E 3.8 0.0 0.0
03:02 6.1 4.9 92 1034.3 3.1 E 3.8 0.0 0.0
03:03 6.1 4.9 92 1034.4 3.1 E 3.8 0.0 0.0
03:04 6.1 4.9 92 1034.2 3.1 E 3.8 0.0 0.0
03:05 6.1 4.9 92 1034.2 3.1 E 3.8 0.0 0.0
03:06 6.1 4.9 92 1034.3 3.1 E 3.8 0.0 0.0
03:07 6.2 5.2 93 1034.3 3.1 NE 3.8 0.0 0.0
03:08 6.2 5.2 93 1034.5 3.8 N 3.8 0.0 0.0
03:09 6.3 5.3 93 1034.3 3.1 N 3.8 0.0 0.0
03:10 6.3 5.3 93 1034.2 2.2 NE 3.8 0.0 0.0
03:11 6.3 5.3 93 1034.4 2.2 NE 3.8 0.0 0.0
03:12 6.3 5.3 93 1034.4 3.8 NE 3.8 0.0 0.0
03:13 6.4 5.4 93 1034.4 2.2 NE 3.8 0.0 0.0
03:14 6.4 5.4 93 1034.3 1.6 NE 3.8 0.0 0.0
03:15 6.4 5.4 93 1034.3 2.2 NE 3.8 0.0 0.0
03:16 6.4 5.4 93 1034.3 3.1 NE 3.8 0.0 0.0
03:17 6.4 5.4 93 1034.3 2.2 NE 3.8 0.0 0.0
03:18 6.4 5.4 93 1034.4 3.1 E 3.8 0.0 0.0
03:19 6.4 5.4 93 1034.4 2.2 E 3.8 0.0 0.0
03:20 6.4 5.4 93 1034.2 3.1 NE 3.8 0.0 0.0
03:21 6.4 5.4 93 1034.3 1.6 NE 3.8 0.0 0.0
03:22 6.4 5.4 93 1034.4 1.6 N 3.8 0.0 0.0
03:23 6.4 5.4 93 1034.1 2.2 NE 3.1 0.0 0.0
03:24 6.3 5.3 93 1034.3 3.1 N 3.1 0.0 0.0
03:25 6.3 5.3 93 1034.3 2.2 N 3.1 0.0 0.0
03:26 6.3 5.3 93 1034.3 3.1 N 3.1 0.0 0.0
03:27 6.3 5.3 93 1034.2 3.1 E 3.1 0.0 0.0
03:28 6.3 5.3 93 1034.2 3.1 N 3.1 0.0 0.0
03:29 6.3 5.3 93 1034.1 3.1 NE 3.1 0.0 0.0
03:30 6.3 5.3 93 1034.1 3.8 NE 3.8 0.0 0.0
03:31 6.3 5.3 93 1034.1 3.8 NE 3.8 0.0 0.0
03:32 6.3 5.3 93 1034.2 3.1 NE 3.8 0.0 0.0
03:33 6.4 5.4 93 1034.2 3.1 N 3.8 0.0 0.0
03:34 6.3 5.3 93 1033.9 3.8 E 3.8 0.0 0.0
03:35 6.3 5.3 93 1034.0 3.8 E 3.8 0.0 0.0
03:36 6.4 5.4 93 1033.9 4.5 N 4.5 0.0 0.0
03:37 6.4 5.4 93 1034.0 3.1 WNW 4.5 0.0 0.0
03:38 6.4 5.4 93 1034.0 4.5 E 4.5 0.0 0.0
03:39 6.4 5.4 93 1033.8 3.1 NE 4.5 0.0 0.0
03:40 6.4 5.5 94 1033.8 3.1 NE 4.5 0.0 0.0
03:41 6.4 5.5 94 1034.0 4.5 NE 4.5 0.0 0.0
03:42 6.4 5.5 94 1034.0 3.1 NE 4.5 0.0 0.0
03:43 6.4 5.5 94 1033.9 3.1 NE 4.5 0.0 0.0
03:44 6.4 5.5 94 1034.0 1.6 E 4.5 0.0 0.0
03:45 6.4 5.5 94 1033.9 3.8 NW 4.5 0.0 0.0
03:46 6.4 5.5 94 1033.9 3.8 NW 4.5 0.0 0.0
03:47 6.4 5.5 94 1033.7 1.6 NE 4.5 0.0 0.0
03:48 6.4 5.5 94 1033.9 2.2 E 4.5 0.0 0.0
03:49 6.4 5.5 94 1033.9 5.4 E 5.4 0.0 0.0
03:50 6.4 5.5 94 1033.8 3.8 NE 5.4 0.0 0.0
03:51 6.4 5.5 94 1033.9 4.5 N 5.4 0.0 0.0
03:52 6.4 5.5 94 1033.8 4.5 NE 5.4 0.0 0.0
03:53 6.5 5.6 94 1034.0 2.2 NE 5.4 0.0 0.0
03:54 6.5 5.6 94 1033.8 3.8 NE 5.4 0.0 0.0
03:55 6.5 5.6 94 1033.9 2.2 NE 5.4 0.0 0.0
03:56 6.5 5.6 94 1033.7 3.8 E 5.4 0.0 0.0
03:57 6.5 5.6 94 1033.7 3.8 NE 5.4 0.0 0.0
03:58 6.5 5.6 94 1033.7 3.1 NE 5.4 0.0 0.0
03:59 6.5 5.6 94 1033.7 3.1 NE 5.4 0.0 0.0
04:00 6.5 5.6 94 1034.0 2.2 N 4.5 0.0 0.0
04:01 6.5 5.6 94 1034.0 3.1 NE 4.5 0.0 0.0
04:02 6.5 5.6 94 1033.9 3.8 NE 4.5 0.0 0.0
04:03 6.5 5.6 94 1034.0 3.8 E 3.8 0.0 0.0
04:04 6.5 5.6 94 1033.9 3.1 NE 3.8 0.0 0.0
04:05 6.5 5.6 94 1033.9 3.1 NE 3.8 0.0 0.0
04:06 6.4 5.5 94 1033.8 3.1 NE 3.8 0.0 0.0
04:07 6.4 5.5 94 1033.8 3.1 NE 3.8 0.0 0.0
04:08 6.4 5.5 94 1033.8 2.2 NE 3.8 0.0 0.0
04:09 6.4 5.5 94 1033.9 3.1 NE 3.8 0.0 0.0
04:10 6.4 5.5 94 1033.9 3.1 E 3.8 0.0 0.0
04:11 6.4 5.5 94 1033.8 3.1 NE 3.8 0.0 0.0
04:12 6.4 5.5 94 1034.0 2.2 NE 3.8 0.0 0.0
04:13 6.4 5.5 94 1034.0 3.1 NE 3.1 0.0 0.0
04:14 6.4 5.5 94 1034.0 2.2 NE 3.1 0.0 0.0
04:15 6.4 5.5 94 1033.9 2.2 NE 3.1 0.0 0.0
04:16 6.4 5.5 94 1033.8 3.8 E 3.8 0.0 0.0
04:17 6.4 5.5 94 1033.9 3.8 NW 3.8 0.0 0.0
04:18 6.4 5.5 94 1033.7 3.8 NW 3.8 0.0 0.0
04:19 6.4 5.5 94 1033.9 2.2 NE 3.8 0.0 0.0
04:20 6.4 5.5 94 1033.9 2.2 NE 3.8 0.0 0.0
04:21 6.4 5.5 94 1033.6 2.2 N 3.8 0.0 0.0
04:22 6.4 5.5 94 1033.6 1.6 NE 3.8 0.0 0.0
04:23 6.4 5.5 94 1033.8 2.2 NE 3.8 0.0 0.0
04:24 6.4 5.5 94 1033.7 2.2 NE 3.8 0.0 0.0
04:25 6.4 5.5 94 1033.7 2.2 E 3.8 0.0 0.0
04:26 6.4 5.5 94 1033.6 1.6 N 3.8 0.0 0.0
04:27 6.4 5.5 94 1033.6 1.6 N 3.8 0.0 0.0
04:28 6.4 5.5 94 1033.6 3.1 NE 3.8 0.0 0.0
04:29 6.4 5.5 94 1033.7 2.2 NE 3.1 0.0 0.0
04:30 6.3 5.4 94 1033.9 3.1 NE 3.1 0.0 0.0
04:31 6.3 5.4 94 1033.7 3.1 NE 3.1 0.0 0.0
04:32 6.3 5.4 94 1033.6 2.2 NE 3.8 0.0 0.0
04:33 6.3 5.4 94 1033.6 2.2 NE 3.8 0.0 0.0
04:34 6.3 5.4 94 1033.7 3.8 NE 3.8 0.0 0.0
04:35 6.3 5.4 94 1033.7 2.2 E 3.8 0.0 0.0
04:36 6.3 5.4 94 1033.6 2.2 NE 3.8 0.0 0.0
04:37 6.3 5.4 94 1033.6 2.2 NE 3.8 0.0 0.0
04:38 6.3 5.4 94 1033.7 3.8 NE 3.8 0.0 0.0
04:39 6.3 5.4 94 1033.7 3.8 NNE 3.8 0.0 0.0
04:40 6.3 5.4 94 1033.8 3.1 NE 3.8 0.0 0.0
04:41 6.3 5.4 94 1033.5 5.4 NE 5.4 0.0 0.0
04:42 6.3 5.4 94 1033.5 5.4 NE 5.4 0.0 0.0
04:43 6.3 5.4 94 1033.4 5.4 NE 5.4 0.0 0.0
04:44 6.3 5.4 94 1033.4 3.1 E 5.4 0.0 0.0
04:45 6.3 5.4 94 1033.6 3.1 NE 5.4 0.0 0.0
04:46 6.3 5.4 94 1033.5 2.2 NE 5.4 0.0 0.0
04:47 6.3 5.4 94 1033.7 2.2 NE 5.4 0.0 0.0
04:48 6.3 5.4 94 1033.6 3.1 E 5.4 0.0 0.0
04:49 6.3 5.4 94 1033.6 0.7 NE 5.4 0.0 0.0
04:50 6.3 5.4 94 1033.4 2.2 NW 5.4 0.0 0.0
04:51 6.3 5.4 94 1033.5 2.2 NE 5.4 0.0 0.0
04:52 6.3 5.4 94 1033.8 2.2 NE 5.4 0.0 0.0
04:53 6.3 5.4 94 1033.7 3.1 NE 3.1 0.0 0.0
04:54 6.3 5.4 94 1033.6 1.6 W 3.1 0.0 0.0
04:55 6.3 5.4 94 1033.5 3.1 NE 3.1 0.0 0.0
04:56 6.3 5.4 94 1033.5 3.1 NE 3.1 0.0 0.0
04:57 6.3 5.4 94 1033.7 3.1 NE 3.1 0.0 0.0
04:58 6.3 5.4 94 1033.7 3.1 NE 3.1 0.0 0.0
04:59 6.3 5.4 94 1033.6 3.1 E 3.1 0.0 0.0
05:00 6.3 5.4 94 1033.8 3.1 E 3.1 0.0 0.0
05:01 6.2 5.3 94 1033.6 1.6 N 3.1 0.0 0.0
05:02 6.2 5.3 94 1033.5 1.6 N 3.1 0.0 0.0
05:04 6.2 5.3 94 1033.6 1.6 N 3.1 0.0 0.0
05:05 6.2 5.3 94 1033.6 1.6 N 3.1 0.0 0.0
05:06 6.2 5.3 94 1033.5 2.2 E 3.1 0.0 0.0
05:07 6.1 5.2 94 1033.6 2.2 NE 3.1 0.0 0.0
05:08 6.1 5.1 93 1033.6 2.2 NE 3.1 0.0 0.0
05:09 6.1 5.1 93 1033.8 2.2 E 3.1 0.0 0.0
05:10 6.1 5.1 93 1033.6 2.2 NE 2.2 0.0 0.0
05:11 6.1 5.1 93 1033.5 2.2 E 2.2 0.0 0.0
05:12 6.1 5.1 93 1033.8 3.1 NE 3.1 0.0 0.0
05:13 6.1 5.1 93 1033.6 3.1 NE 3.1 0.0 0.0
05:14 6.1 5.1 93 1033.4 3.1 E 3.1 0.0 0.0
05:15 6.0 5.0 93 1033.5 3.8 NE 3.8 0.0 0.0
05:16 6.0 5.0 93 1033.6 3.8 NE 3.8 0.0 0.0
05:17 6.0 5.0 93 1033.4 3.8 NE 3.8 0.0 0.0
05:18 6.0 5.0 93 1033.6 4.5 E 4.5 0.0 0.0
05:19 6.0 5.0 93 1033.4 3.8 W 4.5 0.0 0.0
05:20 6.0 5.0 93 1033.5 2.2 NE 4.5 0.0 0.0
05:21 6.0 5.0 93 1033.5 2.2 NE 4.5 0.0 0.0
05:22 6.0 5.0 93 1033.5 3.8 NE 4.5 0.0 0.0
05:23 6.0 5.0 93 1033.3 3.1 NE 4.5 0.0 0.0
05:24 6.0 5.0 93 1033.3 3.1 NE 4.5 0.0 0.0
05:25 6.0 5.0 93 1033.5 3.8 NE 4.5 0.0 0.0
05:26 6.0 5.0 93 1033.5 3.8 NE 4.5 0.0 0.0
05:27 6.0 5.0 93 1033.5 3.1 E 4.5 0.0 0.0
05:28 6.0 5.0 93 1033.4 3.1 NE 4.5 0.0 0.0
05:29 6.0 5.0 93 1033.4 3.1 E 4.5 0.0 0.0
05:30 5.9 4.9 93 1033.6 3.8 NE 3.8 0.0 0.0
05:31 5.9 4.9 93 1033.5 2.2 NE 3.8 0.0 0.0
05:32 5.9 4.9 93 1033.3 2.2 NE 3.8 0.0 0.0
05:33 5.9 4.9 93 1033.5 2.2 NE 3.8 0.0 0.0
05:34 5.9 4.9 93 1033.4 3.1 NE 3.8 0.0 0.0
05:35 5.9 4.9 93 1033.4 3.1 NE 3.8 0.0 0.0
05:36 5.8 4.8 93 1033.4 3.1 NE 3.8 0.0 0.0
05:37 5.9 4.9 93 1033.3 3.8 E 3.8 0.0 0.0
05:38 5.8 4.8 93 1033.4 3.8 NE 3.8 0.0 0.0
05:39 5.8 4.8 93 1033.2 3.8 NE 3.8 0.0 0.0
05:40 5.8 4.8 93 1033.4 3.1 NE 3.8 0.0 0.0
05:41 5.8 4.8 93 1033.3 3.8 E 3.8 0.0 0.0
05:42 5.8 4.8 93 1033.4 3.8 NE 3.8 0.0 0.0
05:43 5.8 4.8 93 1033.4 3.1 NE 3.8 0.0 0.0
05:44 5.8 4.8 93 1033.1 3.1 NE 3.8 0.0 0.0
05:45 5.8 4.8 93 1033.3 3.8 NE 3.8 0.0 0.0
05:47 5.8 4.8 93 1033.0 2.2 NE 3.8 0.0 0.0
05:48 5.8 4.8 93 1033.2 4.5 N 4.5 0.0 0.0
05:49 5.8 4.8 93 1033.3 3.8 NE 4.5 0.0 0.0
05:50 5.8 4.8 93 1033.2 3.8 E 4.5 0.0 0.0
05:51 5.7 4.7 93 1033.2 3.8 N 4.5 0.0 0.0
05:52 5.7 4.7 93 1033.3 3.1 N 4.5 0.0 0.0
05:53 5.7 4.7 93 1033.1 3.1 NE 4.5 0.0 0.0
05:54 5.7 4.7 93 1033.3 3.1 E 4.5 0.0 0.0
05:55 5.7 4.7 93 1033.2 3.1 E 4.5 0.0 0.0
05:56 5.7 4.7 93 1033.4 3.1 NE 4.5 0.0 0.0
05:57 5.7 4.7 93 1033.2 3.8 E 4.5 0.0 0.0
05:58 5.7 4.7 93 1033.4 2.2 NE 4.5 0.0 0.0
05:59 5.7 4.7 93 1033.0 2.2 E 3.8 0.0 0.0
06:01 5.7 4.7 93 1033.4 2.2 E 3.8 0.0 0.0
06:02 5.6 4.6 93 1033.4 2.2 NE 3.8 0.0 0.0
06:03 5.6 4.6 93 1033.2 3.1 E 3.8 0.0 0.0
06:04 5.6 4.6 93 1033.3 3.1 E 3.8 0.0 0.0
06:05 5.6 4.6 93 1033.2 3.1 E 3.8 0.0 0.0
06:06 5.6 4.6 93 1033.1 3.8 NE 3.8 0.0 0.0
06:07 5.6 4.6 93 1033.1 3.8 NE 3.8 0.0 0.0
06:08 5.6 4.6 93 1033.2 3.1 NE 3.8 0.0 0.0
06:09 5.5 4.5 93 1033.1 3.8 NE 3.8 0.0 0.0
06:10 5.5 4.5 93 1033.1 3.1 E 3.8 0.0 0.0
06:11 5.5 4.5 93 1033.1 4.5 NE 4.5 0.0 0.0
06:12 5.5 4.5 93 1033.2 4.5 NE 4.5 0.0 0.0
06:13 5.5 4.5 93 1033.1 3.1 NE 4.5 0.0 0.0
06:14 5.4 4.4 93 1033.2 5.4 NE 5.4 0.0 0.0
06:15 5.4 4.4 93 1033.3 5.4 NE 5.4 0.0 0.0
06:16 5.4 4.4 93 1033.2 5.4 N 5.4 0.0 0.0
06:17 5.4 4.4 93 1033.1 5.4 NE 5.4 0.0 0.0
06:18 5.3 4.3 93 1033.3 4.5 NE 5.4 0.0 0.0
06:19 5.3 4.3 93 1033.0 5.4 NE 5.4 0.0 0.0
06:20 5.3 4.3 93 1033.0 4.5 NE 5.4 0.0 0.0
06:21 5.3 4.3 93 1033.3 4.5 NE 5.4 0.0 0.0
06:22 5.3 4.3 93 1033.2 4.5 NE 5.4 0.0 0.0
06:23 5.3 4.3 93 1033.2 6.0 NE 6.0 0.0 0.0
06:24 5.4 4.4 93 1033.2 5.4 NW 6.0 0.0 0.0
06:25 5.5 4.5 93 1033.2 4.5 E 6.0 0.0 0.0
06:26 5.5 4.5 93 1033.2 4.5 E 6.0 0.0 0.0
06:27 5.5 4.5 93 1032.9 4.5 NE 6.0 0.0 0.0
06:28 5.6 4.6 93 1033.2 6.9 NE 6.9 0.0 0.0
06:30 5.8 4.9 94 1033.1 4.5 E 6.9 0.0 0.0
06:31 5.9 5.0 94 1033.2 6.9 N 6.9 0.0 0.0
06:32 6.0 5.1 94 1033.2 6.9 NE 6.9 0.0 0.0
06:33 6.0 5.1 94 1033.2 5.4 WNW 6.9 0.0 0.0
06:34 6.1 5.2 94 1033.1 8.3 SE 8.3 0.0 0.0
06:35 6.1 5.2 94 1033.2 4.5 NE 8.3 0.0 0.0
06:36 6.1 5.2 94 1033.2 4.5 NE 8.3 0.0 0.0
06:37 6.2 5.3 94 1033.2 4.5 NE 8.3 0.0 0.0
06:38 6.2 5.3 94 1033.0 4.5 NE 8.3 0.0 0.0
06:39 6.2 5.3 94 1033.1 4.5 NE 8.3 0.0 0.0
06:40 6.3 5.6 95 1033.1 3.1 NE 8.3 0.0 0.0
06:41 6.3 5.6 95 1033.1 3.8 SW 8.3 0.0 0.0
06:42 6.3 5.6 95 1032.9 3.8 E 8.3 0.0 0.0
06:43 6.3 5.6 95 1033.0 3.8 N 8.3 0.0 0.0
06:44 6.4 5.7 95 1033.0 3.8 NE 8.3 0.0 0.0
06:45 6.4 5.7 95 1032.8 4.5 NE 4.5 0.0 0.0
06:46 6.4 5.7 95 1033.0 4.5 NE 4.5 0.0 0.0
06:47 6.4 5.7 95 1033.2 4.5 N 4.5 0.0 0.0
06:48 6.4 5.7 95 1033.0 3.8 N 4.5 0.0 0.0
06:49 6.4 5.7 95 1033.0 3.1 NE 4.5 0.0 0.0
06:50 6.4 5.7 95 1033.0 4.5 ESE 4.5 0.0 0.0
06:51 6.4 5.7 95 1033.2 4.5 E 4.5 0.0 0.0
06:52 6.4 5.7 95 1033.1 6.0 E 6.0 0.0 0.0
06:53 6.5 5.8 95 1033.0 5.4 NE 6.0 0.0 0.0
06:54 6.5 5.8 95 1033.0 6.0 E 6.0 0.0 0.0
06:55 6.5 5.8 95 1033.0 6.0 E 6.0 0.0 0.0
06:56 6.5 5.9 96 1033.0 5.4 NE 6.0 0.0 0.0
06:57 6.5 5.9 96 1033.2 5.4 NE 6.0 0.0 0.0
06:58 6.6 6.0 96 1033.0 5.4 E 6.0 0.0 0.0
06:59 6.6 6.0 96 1032.9 5.4 E 6.0 0.0 0.0
07:00 6.6 6.0 96 1032.9 6.9 E 6.9 0.0 0.0
07:01 6.6 6.0 96 1033.1 6.9 E 6.9 0.0 0.0
07:02 6.6 6.0 96 1032.9 6.9 E 6.9 0.0 0.0
07:03 6.6 6.0 96 1032.9 6.9 E 6.9 0.0 0.0
07:04 6.6 6.0 96 1032.9 6.9 E 6.9 0.0 0.0
07:05 6.6 6.0 96 1033.0 6.9 E 6.9 0.0 0.0
07:06 6.7 6.1 96 1032.8 6.9 N 6.9 0.0 0.0
07:07 6.7 6.1 96 1032.8 7.6 NE 7.6 0.0 0.0
07:08 6.8 6.2 96 1033.0 6.0 NE 7.6 0.0 0.0
07:09 6.8 6.2 96 1032.9 3.1 NE 7.6 0.0 0.0
07:10 6.8 6.2 96 1032.9 4.5 E 7.6 0.0 0.0
07:11 6.8 6.2 96 1033.0 3.8 NE 7.6 0.0 0.0
07:12 6.9 6.5 97 1033.0 3.8 N 7.6 0.0 0.0
07:13 6.9 6.5 97 1032.9 3.8 N 7.6 0.0 0.0
07:14 6.9 6.5 97 1032.8 6.9 NE 7.6 0.0 0.0
07:15 6.9 6.5 97 1032.8 6.9 S 7.6 0.0 0.0
07:16 6.9 6.5 97 1032.8 6.9 WNW 7.6 0.0 0.0
07:17 6.9 6.5 97 1032.8 5.4 SE 7.6 0.0 0.0
07:18 6.9 6.5 97 1033.0 5.4 N 7.6 0.0 0.0
07:19 6.9 6.5 97 1032.8 5.4 N 7.6 0.0 0.0
07:20 6.9 6.5 97 1033.0 4.5 E 7.6 0.0 0.0
07:21 6.9 6.5 97 1033.1 3.1 NE 7.6 0.0 0.0
07:22 6.9 6.5 97 1033.1 5.4 N 7.6 0.0 0.0
07:23 7.0 6.6 97 1032.9 3.8 NE 7.6 0.0 0.0
07:24 7.0 6.6 97 1033.0 4.5 E 7.6 0.0 0.0
07:25 7.0 6.6 97 1033.1 4.5 E 6.9 0.0 0.0
07:26 7.0 6.6 97 1033.0 3.1 NE 6.9 0.0 0.0
07:27 7.0 6.6 97 1033.0 2.2 SE 6.9 0.0 0.0
07:28 7.0 6.6 97 1033.1 3.1 NE 6.9 0.0 0.0
07:29 7.0 6.6 97 1032.9 6.0 SE 6.9 0.0 0.0
07:30 7.0 6.6 97 1033.0 1.6 NNW 6.9 0.0 0.0
07:31 7.0 6.6 97 1032.8 3.8 NE 6.9 0.0 0.0
07:32 7.0 6.6 97 1033.0 3.8 E 6.9 0.0 0.0
07:33 7.0 6.6 97 1033.2 3.8 NE 6.9 0.0 0.0
07:34 7.0 6.6 97 1033.0 3.8 NE 6.9 0.0 0.0
07:35 7.0 6.6 97 1033.1 4.5 E 6.0 0.0 0.0
07:36 7.0 6.6 97 1033.0 4.5 E 6.0 0.0 0.0
07:37 7.0 6.6 97 1033.2 4.5 NE 6.0 0.0 0.0
07:38 7.0 6.6 97 1033.2 5.4 NW 6.0 0.0 0.0
07:39 7.0 6.6 97 1033.1 4.5 NE 6.0 0.0 0.0
07:40 7.0 6.7 98 1033.1 5.4 NE 5.4 0.0 0.0
07:41 7.1 6.8 98 1033.1 1.6 NE 5.4 0.0 0.0
07:42 7.1 6.8 98 1033.2 3.1 SE 5.4 0.0 0.0
07:43 7.1 6.8 98 1033.1 1.6 E 5.4 0.0 0.0
07:44 7.1 6.8 98 1033.2 3.1 E 5.4 0.0 0.0
07:45 7.1 6.8 98 1033.0 2.2 N 5.4 0.0 0.0
07:46 7.1 6.8 98 1033.0 5.4 NE 5.4 0.0 0.0
07:47 7.1 6.8 98 1033.1 4.5 NE 5.4 0.0 0.0
07:48 7.1 6.8 98 1033.0 4.5 NE 5.4 0.0 0.0
07:49 7.1 6.8 98 1033.0 7.6 NE 7.6 0.0 0.0
07:50 7.1 6.8 98 1033.1 5.4 NE 7.6 0.0 0.0
07:51 7.2 6.9 98 1032.9 5.4 SW 7.6 0.0 0.0
07:52 7.2 6.9 98 1033.0 3.8 NNE 7.6 0.0 0.0
07:53 7.2 6.9 98 1032.9 7.6 SE 7.6 0.0 0.0
07:55 7.3 7.0 98 1033.1 7.6 SW 7.6 0.0 0.0
07:56 7.3 7.0 98 1032.9 7.6 NE 7.6 0.0 0.0
07:57 7.3 7.0 98 1033.0 5.4 NW 7.6 0.0 0.0
07:58 7.4 7.1 98 1033.1 6.0 NE 7.6 0.0 0.0
07:59 7.4 7.1 98 1032.8 6.0 NE 7.6 0.0 0.0
08:00 7.4 7.1 98 1032.8 6.9 NE 7.6 0.0 0.0
08:01 7.4 7.1 98 1032.8 6.9 NE 7.6 0.0 0.0
08:02 7.4 7.1 98 1032.7 6.9 NE 7.6 0.0 0.0
08:03 7.4 7.1 98 1032.8 6.9 NE 7.6 0.0 0.0
08:04 7.4 7.1 98 1032.6 6.9 NE 7.6 0.0 0.0
08:05 7.4 7.1 98 1032.8 6.9 NE 7.6 0.0 0.0
08:06 7.4 7.1 98 1032.9 6.9 NE 7.6 0.0 0.0
08:07 7.4 7.1 98 1033.0 6.9 NE 6.9 0.0 0.0
08:09 7.5 6.4 93 1033.0 6.9 NW 6.9 0.0 0.0
08:10 7.6 6.5 93 1032.7 7.6 NE 7.6 0.0 0.0
08:11 7.6 6.5 93 1032.9 6.9 NE 7.6 0.0 0.0
08:12 7.5 6.4 93 1033.0 3.8 NE 7.6 0.0 0.0
08:13 7.6 6.5 93 1032.8 8.3 NNE 8.3 0.0 0.0
08:14 7.6 6.5 93 1032.7 6.0 NE 8.3 0.0 0.0
08:15 7.6 6.5 93 1032.7 6.0 NE 8.3 0.0 0.0
08:16 7.5 6.4 93 1032.9 9.2 NE 9.2 0.0 0.0
08:17 7.6 6.5 93 1032.8 8.3 S 9.2 0.0 0.0
08:18 7.6 6.5 93 1033.0 9.2 SW 9.2 0.0 0.0
08:19 7.6 6.5 93 1032.8 6.0 SE 9.2 0.0 0.0
08:20 7.6 6.5 93 1032.9 6.0 E 9.2 0.0 0.0
08:21 7.6 6.5 93 1032.5 7.6 NE 9.2 0.0 0.0
08:23 7.6 6.5 93 1032.8 6.9 NE 9.2 0.0 0.0
08:24 7.6 6.5 93 1032.7 6.9 NE 9.2 0.0 0.0
08:25 7.6 6.5 93 1032.9 5.4 E 9.2 0.0 0.0
08:26 7.6 6.5 93 1032.9 6.9 NE 9.2 0.0 0.0
08:27 7.6 6.5 93 1032.9 9.2 N 9.2 0.0 0.0
08:28 7.6 6.5 93 1032.9 6.9 E 9.2 0.0 0.0
08:29 7.6 6.5 93 1032.7 4.5 N 9.2 0.0 0.0
08:30 7.6 6.5 93 1033.0 4.5 E 9.2 0.0 0.0
08:31 7.6 6.5 93 1032.7 6.9 NE 9.2 0.0 0.0
08:32 7.6 6.5 93 1033.2 4.5 NE 9.2 0.0 0.0
08:33 7.6 6.5 93 1032.7 6.9 NE 9.2 0.0 0.0
08:34 7.6 6.5 93 1032.8 7.6 E 9.2 0.0 0.0
08:35 7.6 6.5 93 1032.8 5.4 SE 9.2 0.0 0.0
08:36 7.6 6.5 93 1032.6 4.5 E 9.2 0.0 0.0
08:37 7.6 6.5 93 1032.8 6.0 SW 9.2 0.0 0.0
08:38 7.6 6.5 93 1032.6 3.8 E 8.3 0.0 0.0
08:39 7.6 6.5 93 1032.7 8.3 NW 8.3 0.0 0.0
08:40 7.7 6.6 93 1032.7 10.7 SSE 10.7 0.0 0.0
08:41 7.6 6.5 93 1032.8 10.7 E 10.7 0.0 0.0
08:42 7.7 6.6 93 1032.7 8.3 NE 10.7 0.0 0.0
08:43 7.7 6.6 93 1032.7 8.3 NE 10.7 0.0 0.0
08:44 7.7 6.6 93 1032.7 8.3 NW 10.7 0.0 0.0
08:45 7.7 6.6 93 1032.7 3.1 E 10.7 0.0 0.0
08:46 7.7 6.6 93 1032.9 5.4 NNW 10.7 0.0 0.0
08:47 7.7 6.6 93 1032.8 5.4 NNW 10.7 0.0 0.0
08:48 7.7 6.6 93 1032.8 5.4 NNW 10.7 0.0 0.0
08:49 7.7 6.6 93 1032.7 7.6 SW 10.7 0.0 0.0
08:51 7.7 6.8 94 1032.5 9.8 W 10.7 0.0 0.0
08:52 7.7 6.8 94 1032.7 8.3 SW 9.8 0.0 0.0
08:53 7.7 6.8 94 1032.7 6.0 E 9.8 0.0 0.0
08:54 7.7 6.8 94 1032.6 7.6 SSE 9.8 0.0 0.0
08:55 7.7 6.8 94 1032.6 7.6 E 9.8 0.0 0.0
08:56 7.8 6.9 94 1032.7 6.0 N 9.8 0.0 0.0
08:57 7.8 6.9 94 1032.6 4.5 E 9.8 0.0 0.0
08:58 7.8 6.9 94 1032.7 5.4 S 9.8 0.0 0.0
08:59 7.8 6.9 94 1032.7 9.2 S 9.8 0.0 0.0
09:00 7.8 6.9 94 1032.7 9.2 E 9.8 0.0 0.0
09:01 7.8 6.9 94 1032.7 9.2 E 9.8 0.0 0.0
09:02 7.8 6.9 94 1032.7 9.2 E 9.2 0.0 0.0
09:03 7.8 6.9 94 1032.5 9.2 E 9.2 0.0 0.0
09:04 7.8 6.9 94 1032.7 9.2 E 9.2 0.0 0.0
09:05 7.8 6.9 94 1032.7 9.2 E 9.2 0.0 0.0
09:06 7.8 6.9 94 1032.8 7.6 ESE 9.2 0.0 0.0
09:07 7.8 6.9 94 1032.6 8.3 E 9.2 0.0 0.0
09:08 7.8 6.9 94 1032.8 9.2 W 9.2 0.0 0.0
09:09 7.8 6.9 94 1033.0 6.9 NW 9.2 0.0 0.0
09:10 7.8 6.9 94 1032.8 10.7 E 10.7 0.0 0.0
09:11 7.8 6.9 94 1032.8 5.4 NW 10.7 0.0 0.0
09:12 7.8 6.9 94 1032.8 5.4 NW 10.7 0.0 0.0
09:13 7.8 6.9 94 1032.8 9.8 W 10.7 0.0 0.0
09:14 7.8 6.9 94 1032.8 6.9 E 10.7 0.0 0.0
09:15 7.8 6.9 94 1032.8 10.7 E 10.7 0.0 0.0
09:16 7.8 6.9 94 1033.0 6.9 E 10.7 0.0 0.0
09:17 7.9 7.0 94 1032.6 6.0 NE 10.7 0.0 0.0
09:18 7.9 7.0 94 1032.8 6.0 S 10.7 0.0 0.0
09:19 8.0 7.1 94 1032.8 10.7 NE 10.7 0.0 0.0
09:20 8.0 7.1 94 1032.8 3.8 E 10.7 0.0 0.0
09:21 8.0 7.1 94 1032.9 8.3 E 10.7 0.0 0.0
09:22 8.0 7.1 94 1032.9 9.2 NW 10.7 0.0 0.0
09:23 8.0 7.1 94 1032.8 12.1 SE 12.1 0.0 0.0
09:24 8.0 7.1 94 1033.1 7.6 NE 12.1 0.0 0.0
09:25 8.0 7.1 94 1033.0 6.9 NE 12.1 0.0 0.0
09:26 8.0 7.1 94 1033.0 7.6 NE 12.1 0.0 0.0
09:27 8.1 7.2 94 1033.1 9.8 N 12.1 0.0 0.0
09:28 8.1 7.2 94 1032.9 9.8 NE 12.1 0.0 0.0
09:29 8.1 7.2 94 1033.0 13.6 E 13.6 0.0 0.0
09:30 8.1 7.2 94 1033.1 13.6 NE 13.6 0.0 0.0
09:31 8.2 7.3 94 1033.0 9.8 NE 13.6 0.0 0.0
09:32 8.2 7.3 94 1033.0 11.4 NW 13.6 0.0 0.0
09:33 8.2 7.3 94 1032.9 9.8 WNW 13.6 0.0 0.0
09:34 8.3 7.4 94 1033.2 8.3 NW 13.6 0.0 0.0
09:35 8.3 7.4 94 1033.2 7.6 N 13.6 0.0 0.0
09:36 8.3 7.4 94 1033.2 8.3 N 13.6 0.0 0.0
09:37 8.3 7.4 94 1033.0 6.9 NE 13.6 0.0 0.0
09:38 8.4 7.5 94 1033.1 8.3 S 13.6 0.0 0.0
09:39 8.4 7.6 95 1033.1 9.8 N 13.6 0.0 0.0
09:40 8.4 7.6 95 1033.2 9.8 N 11.4 0.0 0.0
09:41 8.4 7.6 95 1033.2 6.9 SW 11.4 0.0 0.0
09:42 8.5 7.7 95 1033.0 3.8 E 9.8 0.0 0.0
09:43 8.5 7.7 95 1033.2 7.6 SW 9.8 0.0 0.0
09:44 8.5 7.7 95 1033.2 4.5 N 9.8 0.0 0.0
09:45 8.5 7.7 95 1033.2 8.3 NE 9.8 0.0 0.0
09:46 8.5 7.7 95 1033.0 8.3 E 9.8 0.0 0.0
09:47 8.5 7.7 95 1033.0 6.0 E 9.8 0.0 0.0
09:49 8.5 7.7 95 1033.0 7.6 SE 9.8 0.0 0.0
09:50 8.6 7.8 95 1033.0 9.2 SE 9.8 0.0 0.0
09:51 8.6 7.8 95 1033.0 6.9 E 9.2 0.0 0.0
09:52 8.6 7.8 95 1033.1 6.9 SSE 9.2 0.0 0.0
09:53 8.6 7.8 95 1033.0 5.4 SE 9.2 0.0 0.0
09:54 8.6 7.8 95 1033.1 5.4 NE 9.2 0.0 0.0
09:55 8.6 7.8 95 1033.1 5.4 NE 9.2 0.0 0.0
09:56 8.6 7.8 95 1032.9 5.4 N 9.2 0.0 0.0
09:57 8.6 7.8 95 1033.0 13.6 SE 13.6 0.0 0.0
09:58 8.6 7.8 95 1033.1 13.6 SE 13.6 0.0 0.0
09:59 8.7 7.9 95 1033.1 7.6 E 13.6 0.0 0.0
10:00 8.7 7.9 95 1033.0 9.8 NE 13.6 0.0 0.0
10:01 8.7 7.9 95 1032.8 10.7 E 13.6 0.0 0.0
10:02 8.7 7.9 95 1033.1 10.7 E 13.6 0.0 0.0
10:03 8.7 7.9 95 1033.1 10.7 E 13.6 0.0 0.0
10:04 8.7 7.9 95 1032.9 10.7 E 13.6 0.0 0.0
10:05 8.7 7.9 95 1032.8 10.7 E 13.6 0.0 0.0
10:06 8.8 8.0 95 1032.9 4.5 S 13.6 0.0 0.0
10:07 8.8 8.0 95 1033.0 4.5 S 13.6 0.0 0.0
10:08 8.8 8.0 95 1033.0 6.0 NE 10.7 0.0 0.0
10:09 8.8 8.0 95 1032.9 9.2 NE 10.7 0.0 0.0
10:10 8.8 8.0 95 1033.0 9.2 E 10.7 0.0 0.0
10:11 8.8 8.0 95 1032.9 7.6 N 10.7 0.0 0.0
10:12 8.8 8.0 95 1033.0 4.5 NE 10.7 0.0 0.0
10:13 8.8 8.0 95 1032.8 6.0 E 10.7 0.0 0.0
10:14 8.9 8.1 95 1033.0 7.6 NE 10.7 0.0 0.0
10:15 8.9 8.1 95 1032.7 6.0 N 10.7 0.0 0.0
10:16 8.9 8.1 95 1032.7 6.0 N 10.7 0.0 0.0
10:18 8.9 8.1 95 1032.9 7.6 NW 9.2 0.0 0.0
10:19 8.9 8.1 95 1032.8 7.6 NE 9.2 0.0 0.0
10:20 8.9 8.1 95 1032.8 6.0 NE 7.6 0.0 0.0
10:21 8.9 8.1 95 1032.8 7.6 N 7.6 0.0 0.0
10:22 8.9 8.1 95 1032.8 9.8 NNE 9.8 0.0 0.0
10:23 8.9 8.1 95 1032.9 5.4 E 9.8 0.0 0.0
10:24 8.9 8.1 95 1032.9 5.4 E 9.8 0.0 0.0
10:25 8.9 8.1 95 1032.6 4.5 NW 9.8 0.0 0.0
10:26 8.9 8.1 95 1032.8 2.2 NW 9.8 0.0 0.0
10:27 9.0 8.2 95 1032.6 6.0 NE 9.8 0.0 0.0
10:28 9.0 8.2 95 1032.6 8.3 E 9.8 0.0 0.0
10:29 9.0 8.2 95 1032.8 7.6 N 9.8 0.0 0.0
10:30 9.0 8.2 95 1032.7 7.6 NW 9.8 0.0 0.0
10:32 9.1 8.3 95 1032.7 6.0 SE 9.8 0.0 0.0
10:33 9.1 8.3 95 1032.8 6.0 NE 9.2 0.0 0.0
10:34 9.1 8.3 95 1032.8 6.9 S 9.2 0.0 0.0
10:35 9.1 8.3 95 1032.4 6.9 ESE 8.3 0.0 0.0
10:36 9.2 8.4 95 1032.7 4.5 NE 8.3 0.0 0.0
10:37 9.2 8.4 95 1032.7 4.5 NW 8.3 0.0 0.0
10:38 9.2 8.4 95 1032.6 6.0 NW 8.3 0.0 0.0
10:39 9.2 8.4 95 1032.6 11.4 E 11.4 0.0 0.0
10:40 9.2 8.4 95 1032.8 9.8 N 11.4 0.0 0.0
10:41 9.2 8.4 95 1032.4 7.6 NE 11.4 0.0 0.0
10:42 9.2 8.4 95 1032.5 7.6 E 11.4 0.0 0.0
10:43 9.2 8.4 95 1032.8 4.5 SE 11.4 0.0 0.0
10:44 9.2 8.4 95 1032.5 6.0 NW 11.4 0.0 0.0
10:45 9.2 8.4 95 1032.7 8.3 S 11.4 0.0 0.0
10:46 9.2 8.4 95 1032.6 4.5 NE 11.4 0.0 0.0
10:47 9.2 8.4 95 1032.7 6.0 NW 11.4 0.0 0.0
10:48 9.2 8.4 95 1032.6 6.0 S 11.4 0.0 0.0
10:49 9.2 8.4 95 1032.6 5.4 NE 9.8 0.0 0.0
10:50 9.2 8.4 95 1032.6 3.8 NW 8.3 0.0 0.0
10:51 9.2 8.4 95 1032.5 4.5 NW 8.3 0.0 0.0
10:52 9.2 8.4 95 1032.5 4.5 NW 8.3 0.0 0.0
10:53 9.2 8.4 95 1032.6 9.2 S 9.2 0.0 0.0
10:54 9.3 8.5 95 1032.8 6.0 NW 9.2 0.0 0.0
10:55 9.3 8.5 95 1032.5 11.4 NE 11.4 0.0 0.0
10:56 9.3 8.5 95 1032.6 14.5 NE 14.5 0.0 0.0
10:57 9.4 8.6 95 1032.6 6.0 NW 14.5 0.0 0.0
10:58 9.4 8.6 95 1032.6 7.6 N 14.5 0.0 0.0
10:59 9.4 8.6 95 1032.4 7.6 E 14.5 0.0 0.0
11:00 9.4 8.6 95 1032.4 7.6 NE 14.5 0.0 0.0
11:01 9.5 8.7 95 1032.4 7.6 E 14.5 0.0 0.0
11:02 9.5 8.7 95 1032.5 7.6 E 14.5 0.0 0.0
11:03 9.5 8.7 95 1032.1 7.6 E 14.5 0.0 0.0
11:04 9.5 8.7 95 1032.5 7.6 E 14.5 0.0 0.0
11:05 9.5 8.7 95 1032.2 7.6 E 14.5 0.0 0.0
11:06 9.7 8.8 94 1032.2 7.6 E 9.2 0.0 0.0
11:07 9.7 8.8 94 1032.5 7.6 E 7.6 0.0 0.0
11:08 9.7 8.8 94 1032.5 7.6 E 7.6 0.0 0.0
11:09 9.8 8.9 94 1032.4 6.0 S 7.6 0.0 0.0
11:10 9.9 9.0 94 1032.4 7.6 N 7.6 0.0 0.0
11:11 9.9 9.0 94 1032.5 7.6 NW 7.6 0.0 0.0
11:12 10.0 9.1 94 1032.3 9.8 E 9.8 0.0 0.0
11:13 10.0 9.1 94 1032.5 8.3 N 9.8 0.0 0.0
11:14 10.0 9.1 94 1032.1 11.4 SSE 11.4 0.0 0.0
11:15 10.1 9.2 94 1032.2 5.4 W 11.4 0.0 0.0
11:16 10.1 9.0 93 1032.4 3.8 E 11.4 0.0 0.0
11:17 10.2 9.1 93 1032.2 3.8 S 11.4 0.0 0.0
11:18 10.2 9.1 93 1032.0 4.5 SW 11.4 0.0 0.0
11:19 10.2 9.1 93 1032.4 7.6 NW 11.4 0.0 0.0
11:20 10.2 9.1 93 1032.2 4.5 NE 11.4 0.0 0.0
11:21 10.3 9.2 93 1032.4 4.5 SE 11.4 0.0 0.0
11:22 10.3 9.2 93 1032.2 5.4 NE 11.4 0.0 0.0
11:23 10.3 9.2 93 1032.2 6.0 S 11.4 0.0 0.0
11:24 10.3 9.2 93 1032.2 6.0 SE 7.6 0.0 0.0
11:25 10.3 9.2 93 1032.2 5.4 NE 7.6 0.0 0.0
11:26 10.3 9.2 93 1032.2 5.4 E 7.6 0.0 0.0
11:27 10.4 9.3 93 1032.3 6.0 S 7.6 0.0 0.0
11:28 10.4 9.3 93 1032.2 9.8 N 9.8 0.0 0.0
11:29 10.4 9.2 92 1032.3 6.9 S 9.8 0.0 0.0
11:30 10.4 9.2 92 1032.1 6.9 S 9.8 0.0 0.0
11:31 10.4 9.2 92 1032.3 5.4 SSE 9.8 0.0 0.0
11:32 10.4 9.2 92 1032.1 5.4 N 9.8 0.0 0.0
11:34 10.5 9.1 91 1032.3 3.8 N 9.8 0.0 0.0
11:35 10.5 9.1 91 1032.3 3.8 N 9.8 0.0 0.0
11:36 10.5 8.9 90 1032.4 4.5 NE 9.8 0.0 0.0
11:37 10.5 8.9 90 1032.4 4.5 SE 9.8 0.0 0.0
11:38 10.5 8.8 89 1032.2 5.4 NW 6.9 0.0 0.0
11:39 10.5 8.8 89 1032.3 6.9 N 6.9 0.0 0.0
11:40 10.5 8.8 89 1032.3 6.9 N 6.9 0.0 0.0
11:41 10.5 8.8 89 1032.4 4.5 SE 6.9 0.0 0.0
11:42 10.5 8.8 89 1032.3 3.8 NE 6.9 0.0 0.0
11:43 10.5 8.6 88 1032.2 6.9 W 6.9 0.0 0.0
11:44 10.5 8.6 88 1032.1 6.0 SE 6.9 0.0 0.0
11:45 10.5 8.4 87 1032.3 9.8 NE 9.8 0.0 0.0
11:46 10.5 8.4 87 1032.3 9.8 S 9.8 0.0 0.0
11:47 10.5 8.4 87 1032.1 4.5 SSE 9.8 0.0 0.0
11:48 10.6 8.4 86 1032.3 5.4 N 9.8 0.0 0.0
11:49 10.6 8.4 86 1032.4 6.0 SE 9.8 0.0 0.0
11:50 10.6 8.2 85 1032.3 9.2 SE 9.8 0.0 0.0
11:51 10.6 8.2 85 1032.2 9.2 S 9.8 0.0 0.0
11:52 10.6 8.2 85 1032.2 4.5 SE 9.8 0.0 0.0
11:53 10.6 8.2 85 1032.2 9.2 SW 9.8 0.0 0.0
11:54 10.6 8.2 85 1032.3 4.5 S 9.8 0.0 0.0
11:55 10.6 8.0 84 1032.3 6.0 SE 9.8 0.0 0.0
11:56 10.6 8.0 84 1032.3 6.0 SE 9.8 0.0 0.0
11:57 10.7 8.1 84 1032.2 6.0 W 9.8 0.0 0.0
11:58 10.7 8.1 84 1032.2 5.4 ESE 9.8 0.0 0.0
11:59 10.7 8.1 84 1032.2 8.3 N 9.8 0.0 0.0
12:00 10.7 8.1 84 1032.3 4.5 SW 9.8 0.0 0.0
12:01 10.7 8.1 84 1032.1 10.7 N 10.7 0.0 0.0
12:02 10.7 8.1 84 1032.2 10.7 N 10.7 0.0 0.0
12:03 10.7 7.9 83 1031.9 6.9 NW 10.7 0.0 0.0
12:04 10.7 7.9 83 1031.9 6.0 NE 10.7 0.0 0.0
12:05 10.8 8.0 83 1032.0 6.0 SW 10.7 0.0 0.0
12:06 10.8 8.0 83 1032.1 4.5 NE 10.7 0.0 0.0
12:07 10.8 8.0 83 1032.0 6.0 NE 10.7 0.0 0.0
12:08 10.8 8.0 83 1032.0 6.9 SE 10.7 0.0 0.0
12:09 10.8 8.0 83 1031.9 6.9 N 10.7 0.0 0.0
12:10 10.9 8.1 83 1032.1 5.4 W 10.7 0.0 0.0
12:11 10.9 8.1 83 1032.0 6.9 S 10.7 0.0 0.0
12:12 10.9 8.1 83 1032.0 6.9 S 10.7 0.0 0.0
12:13 11.0 8.0 82 1032.0 8.3 NW 8.3 0.0 0.0
12:14 11.0 8.0 82 1031.9 4.5 SE 8.3 0.0 0.0
12:15 11.0 8.0 82 1031.9 5.4 NE 8.3 0.0 0.0
12:16 11.1 8.1 82 1032.2 5.4 E 8.3 0.0 0.0
12:17 11.1 8.1 82 1031.9 4.5 SW 8.3 0.0 0.0
12:18 11.1 8.1 82 1032.0 6.0 N 8.3 0.0 0.0
12:20 11.2 8.2 82 1031.9 6.9 NE 8.3 0.0 0.0
12:21 11.2 8.2 82 1031.9 9.8 N 9.8 0.0 0.0
12:22 11.2 8.2 82 1031.9 6.0 E 9.8 0.0 0.0
12:23 11.2 8.1 81 1031.9 5.4 NE 9.8 0.0 0.0
12:24 11.2 8.1 81 1031.9 5.4 SW 9.8 0.0 0.0
12:25 11.2 8.1 81 1031.7 3.8 NNE 9.8 0.0 0.0
12:26 11.2 8.1 81 1031.7 5.4 NE 9.8 0.0 0.0
12:27 11.2 8.1 81 1031.7 9.2 S 9.8 0.0 0.0
12:28 11.2 8.1 81 1031.4 5.4 SE 9.8 0.0 0.0
12:29 11.2 8.1 81 1031.8 9.8 NW 9.8 0.0 0.0
12:30 11.2 8.1 81 1031.7 7.6 NE 9.8 0.0 0.0
12:31 11.2 8.1 81 1031.8 8.3 SW 9.8 0.0 0.0
12:32 11.2 8.1 81 1031.7 5.4 S 9.8 0.0 0.0
12:33 11.1 8.0 81 1031.7 11.4 SE 11.4 0.0 0.0
12:34 11.1 8.0 81 1031.8 11.4 E 11.4 0.0 0.0
12:35 11.1 8.0 81 1031.9 9.8 S 11.4 0.0 0.0
12:36 11.1 8.0 81 1032.0 9.2 SE 11.4 0.0 0.0
12:37 11.1 8.0 81 1032.0 9.8 S 11.4 0.0 0.0
12:38 11.2 8.1 81 1032.0 5.4 S 11.4 0.0 0.0
12:39 11.2 8.1 81 1031.8 5.4 E 11.4 0.0 0.0
12:40 11.2 8.1 81 1031.8 4.5 NE 11.4 0.0 0.0
12:41 11.2 8.1 81 1031.8 9.2 SE 11.4 0.0 0.0
12:42 11.3 8.2 81 1031.8 7.6 NW 11.4 0.0 0.0
12:43 11.3 8.2 81 1031.9 6.0 NE 11.4 0.0 0.0
12:44 11.3 8.2 81 1031.6 5.4 NE 11.4 0.0 0.0
12:45 11.3 8.2 81 1031.7 6.9 S 9.8 0.0 0.0
12:46 11.4 8.3 81 1031.8 6.9 SW 9.8 0.0 0.0
12:47 11.4 8.3 81 1031.5 11.4 NE 11.4 0.0 0.0
12:48 11.4 8.3 81 1031.6 11.4 NE 11.4 0.0 0.0
12:49 11.4 8.1 80 1031.6 3.1 SE 11.4 0.0 0.0
12:50 11.5 8.2 80 1031.8 6.0 NE 11.4 0.0 0.0
12:51 11.5 8.2 80 1031.7 6.9 NE 11.4 0.0 0.0
12:52 11.5 8.2 80 1031.4 7.6 E 11.4 0.0 0.0
12:53 11.5 8.2 80 1031.6 8.3 S 11.4 0.0 0.0
12:54 11.5 8.2 80 1031.7 14.5 S 14.5 0.0 0.0
12:55 11.5 8.2 80 1031.3 14.5 E 14.5 0.0 0.0
12:56 11.5 8.2 80 1031.3 14.5 E 14.5 0.0 0.0
12:57 11.4 8.1 80 1031.6 8.3 S 14.5 0.0 0.0
12:58 11.4 7.9 79 1031.5 8.3 E 14.5 0.0 0.0
12:59 11.4 7.9 79 1031.7 6.0 N 14.5 0.0 0.0
13:00 11.4 7.9 79 1031.4 6.9 SE 14.5 0.0 0.0
13:01 11.4 7.9 79 1031.7 8.3 E 14.5 0.0 0.0
13:02 11.4 7.9 79 1031.5 8.3 E 14.5 0.0 0.0
13:03 11.4 7.9 79 1031.5 10.7 W 14.5 0.0 0.0
13:05 11.3 7.8 79 1031.6 5.4 NW 14.5 0.0 0.0
13:06 11.3 7.8 79 1031.5 6.9 SW 10.7 0.0 0.0
13:07 11.4 7.9 79 1031.4 9.2 ESE 10.7 0.0 0.0
13:08 11.4 7.9 79 1031.5 5.4 NW 10.7 0.0 0.0
13:09 11.4 7.9 79 1031.5 7.6 SE 10.7 0.0 0.0
13:10 11.4 7.9 79 1031.5 11.4 S 11.4 0.0 0.0
13:11 11.3 7.8 79 1031.8 7.6 NE 11.4 0.0 0.0
13:12 11.3 7.8 79 1031.4 6.9 S 11.4 0.0 0.0
13:13 11.3 7.8 79 1031.5 6.0 S 11.4 0.0 0.0
13:14 11.3 7.8 79 1031.5 5.4 E 11.4 0.0 0.0
13:15 11.3 7.8 79 1031.5 5.4 E 11.4 0.0 0.0
13:16 11.4 7.9 79 1031.4 6.9 NW 11.4 0.0 0.0
13:17 11.3 7.8 79 1031.3 7.6 NE 11.4 0.0 0.0
13:18 11.3 7.8 79 1031.5 7.6 SE 11.4 0.0 0.0
13:19 11.3 7.8 79 1031.4 7.6 NE 11.4 0.0 0.0
13:20 11.3 7.8 79 1031.3 7.6 NE 11.4 0.0 0.0
13:21 11.3 7.8 79 1031.5 6.9 E 11.4 0.0 0.0
13:22 11.3 7.8 79 1031.3 7.6 S 9.2 0.0 0.0
13:23 11.3 7.8 79 1031.1 4.5 S 9.2 0.0 0.0
13:24 11.3 7.8 79 1031.6 3.8 E 9.2 0.0 0.0
13:25 11.3 7.8 79 1031.3 6.9 S 9.2 0.0 0.0
13:26 11.3 7.8 79 1031.3 6.0 E 9.2 0.0 0.0
13:27 11.4 7.9 79 1031.3 5.4 NE 9.2 0.0 0.0
13:28 11.4 7.9 79 1031.2 5.4 NE 9.2 0.0 0.0
13:29 11.5 8.0 79 1031.3 7.6 NE 9.2 0.0 0.0
13:30 11.5 8.0 79 1031.3 11.4 N 11.4 0.0 0.0
13:31 11.5 8.0 79 1031.3 11.4 N 11.4 0.0 0.0
13:32 11.5 8.0 79 1031.2 4.5 SW 11.4 0.0 0.0
13:33 11.5 8.0 79 1031.2 4.5 N 11.4 0.0 0.0
13:34 11.5 8.0 79 1031.3 7.6 SE 11.4 0.0 0.0
13:35 11.5 8.0 79 1031.4 6.0 S 11.4 0.0 0.0
13:36 11.5 8.0 79 1031.4 8.3 SW 11.4 0.0 0.0
13:37 11.5 8.0 79 1031.2 6.9 E 11.4 0.0 0.0
13:38 11.5 8.0 79 1031.3 6.0 SE 11.4 0.0 0.0
13:40 11.4 7.9 79 1031.3 5.4 NW 11.4 0.0 0.0
13:41 11.4 7.9 79 1031.2 6.9 S 10.7 0.0 0.0
13:42 11.4 7.9 79 1031.2 4.5 E 10.7 0.0 0.0
13:43 11.4 7.9 79 1031.2 8.3 S 10.7 0.0 0.0
13:44 11.4 7.9 79 1031.3 8.3 SW 10.7 0.0 0.0
13:45 11.4 7.9 79 1031.4 7.6 SE 10.7 0.0 0.0
13:46 11.4 7.9 79 1031.0 11.4 N 11.4 0.0 0.0
13:47 11.4 7.9 79 1031.0 11.4 N 11.4 0.0 0.0
13:48 11.4 7.9 79 1031.2 11.4 S 11.4 0.0 0.0
13:49 11.4 7.9 79 1030.9 7.6 NE 11.4 0.0 0.0
13:50 11.5 8.0 79 1031.2 5.4 E 11.4 0.0 0.0
13:51 11.5 8.0 79 1031.1 4.5 N 11.4 0.0 0.0
13:52 11.5 8.0 79 1031.1 4.5 N 11.4 0.0 0.0
13:53 11.5 8.0 79 1031.2 8.3 S 11.4 0.0 0.0
13:55 11.5 8.0 79 1031.0 6.9 SE 11.4 0.0 0.0
13:56 11.5 8.0 79 1031.0 8.3 SE 11.4 0.0 0.0
13:57 11.5 8.0 79 1031.0 7.6 SW 11.4 0.0 0.0
13:58 11.5 8.0 79 1031.0 8.3 S 9.2 0.0 0.0
13:59 11.5 8.0 79 1031.0 8.3 SW 9.2 0.0 0.0
14:00 11.5 8.0 79 1031.1 9.2 NE 9.2 0.0 0.0
14:01 11.5 8.0 79 1031.1 9.2 NE 9.2 0.0 0.0
14:02 11.5 8.0 79 1031.0 9.2 NE 9.2 0.0 0.0
14:03 11.5 8.0 79 1031.0 7.6 S 9.2 0.0 0.0
14:04 11.5 8.0 79 1030.8 9.2 E 9.2 0.0 0.0
14:05 11.5 8.0 79 1031.0 6.0 N 9.2 0.0 0.0
14:06 11.5 8.0 79 1031.0 7.6 S 9.2 0.0 0.0
14:07 11.5 8.0 79 1031.0 7.6 SW 9.2 0.0 0.0
14:08 11.5 8.0 79 1030.9 8.3 S 9.2 0.0 0.0
14:09 11.5 8.0 79 1030.9 6.9 S 12.1 0.0 0.0
14:10 11.4 7.9 79 1031.1 4.5 E 12.1 0.0 0.0
14:11 11.3 7.6 78 1031.1 9.2 SE 12.1 0.0 0.0
14:12 11.3 7.6 78 1030.9 8.3 SE 12.1 0.0 0.0
14:13 11.2 7.5 78 1030.9 8.3 S 12.1 0.0 0.0
14:14 11.2 7.5 78 1031.1 9.2 SE 12.1 0.0 0.0
14:15 11.2 7.5 78 1031.0 8.3 NE 12.1 0.0 0.0
14:16 11.2 7.5 78 1030.9 5.4 NE 12.1 0.0 0.0
14:17 11.2 7.5 78 1031.1 4.5 E 12.1 0.0 0.0
14:18 11.2 7.5 78 1031.0 7.6 SW 12.1 0.0 0.0
14:19 11.2 7.5 78 1031.0 7.6 S 9.2 0.0 0.0
14:20 11.2 7.7 79 1030.8 7.6 S 9.2 0.0 0.0
14:21 11.2 7.7 79 1031.0 3.8 SE 9.2 0.0 0.0
14:22 11.2 7.7 79 1030.9 3.8 NE 9.2 0.0 0.0
14:23 11.2 7.7 79 1031.0 6.9 E 9.2 0.0 0.0
14:24 11.2 7.7 79 1031.0 5.4 N 9.2 0.0 0.0
14:25 11.3 7.6 78 1030.9 5.4 SE 9.2 0.0 0.0
14:27 11.3 7.6 78 1030.9 9.8 NW 11.4 0.0 0.0
14:28 11.3 7.6 78 1030.8 6.0 ESE 11.4 0.0 0.0
14:29 11.3 7.6 78 1030.8 6.0 NE 11.4 0.0 0.0
14:30 11.3 7.6 78 1030.8 4.5 NW 11.4 0.0 0.0
14:31 11.3 7.6 78 1031.0 4.5 N 11.4 0.0 0.0
14:32 11.3 7.6 78 1031.0 9.2 SSE 11.4 0.0 0.0
14:33 11.3 7.6 78 1030.9 9.2 N 11.4 0.0 0.0
14:34 11.3 7.6 78 1030.8 7.6 W 11.4 0.0 0.0
14:35 11.3 7.6 78 1030.9 7.6 S 11.4 0.0 0.0
14:36 11.3 7.6 78 1030.7 7.6 NE 11.4 0.0 0.0
14:37 11.3 7.6 78 1030.9 3.1 S 9.8 0.0 0.0
14:38 11.3 7.6 78 1030.8 4.5 W 9.2 0.0 0.0
14:39 11.3 7.6 78 1030.8 6.0 NW 9.2 0.0 0.0
14:40 11.3 7.6 78 1030.5 3.1 SE 9.2 0.0 0.0
14:41 11.3 7.6 78 1030.9 3.1 E 9.2 0.0 0.0
14:42 11.3 7.6 78 1030.8 3.1 NE 9.2 0.0 0.0
14:43 11.3 7.6 78 1030.7 2.2 NE 7.6 0.0 0.0
14:44 11.3 7.6 78 1030.7 3.8 S 7.6 0.0 0.0
14:45 11.3 7.6 78 1030.8 3.8 W 7.6 0.0 0.0
14:46 11.3 7.6 78 1030.8 3.1 N 6.0 0.0 0.0
14:47 11.3 7.6 78 1030.6 3.8 SSE 6.0 0.0 0.0
14:48 11.3 7.6 78 1030.8 3.8 E 6.0 0.0 0.0
14:49 11.3 7.6 78 1030.8 5.4 NE 5.4 0.0 0.0
14:50 11.3 7.6 78 1030.7 2.2 SW 5.4 0.0 0.0
14:51 11.3 7.6 78 1030.7 2.2 SW 5.4 0.0 0.0
14:52 11.2 7.3 77 1030.8 2.2 NE 5.4 0.0 0.0
14:53 11.0 7.1 77 1030.8 2.2 N 5.4 0.0 0.0
14:54 11.0 7.1 77 1030.6 3.8 E 5.4 0.0 0.0
14:55 10.9 7.0 77 1030.8 3.1 W 5.4 0.0 0.0
14:56 10.9 7.0 77 1030.5 4.5 SSE 5.4 0.0 0.0
14:57 10.8 7.1 78 1030.7 1.6 E 5.4 0.0 0.0
14:58 10.8 7.1 78 1030.6 4.5 N 5.4 0.0 0.0
14:59 10.8 7.1 78 1030.6 4.5 SE 4.5 0.0 0.0
15:00 10.7 7.0 78 1030.6 5.4 NE 5.4 0.0 0.0
15:01 10.7 7.0 78 1030.5 5.4 NE 5.4 0.0 0.0
15:02 10.7 7.0 78 1030.6 5.4 NE 5.4 0.0 0.0
15:03 10.6 6.9 78 1030.7 3.1 N 5.4 0.0 0.0
15:04 10.6 6.9 78 1030.5 2.2 NE 5.4 0.0 0.0
15:05 10.6 6.9 78 1030.5 2.2 NNE 5.4 0.0 0.0
15:06 10.5 7.0 79 1030.7 3.1 E 5.4 0.0 0.0
15:07 10.5 7.0 79 1030.7 3.1 E 5.4 0.0 0.0
15:08 10.5 7.0 79 1030.5 2.2 SE 5.4 0.0 0.0
15:09 10.5 7.0 79 1030.6 2.2 NE 5.4 0.0 0.0
15:10 10.4 6.9 79 1030.7 3.1 SE 5.4 0.0 0.0
15:11 10.4 6.9 79 1030.5 3.1 N 5.4 0.0 0.0
15:12 10.4 6.9 79 1030.7 1.6 W 5.4 0.0 0.0
15:13 10.3 6.8 79 1030.4 2.2 NE 3.1 0.0 0.0
15:14 10.3 6.8 79 1030.4 3.1 SW 3.1 0.0 0.0
15:15 10.2 6.7 79 1030.3 2.2 NE 3.1 0.0 0.0
15:16 10.2 6.7 79 1030.5 3.1 E 3.1 0.0 0.0
15:17 10.2 6.7 79 1030.6 3.1 NE 6.9 0.0 0.0
15:18 10.2 6.7 79 1030.4 3.1 SW 6.9 0.0 0.0
15:19 10.2 6.7 79 1030.3 3.8 N 6.9 0.0 0.0
15:20 10.2 6.7 79 1030.3 3.8 N 6.9 0.0 0.0
15:21 10.2 6.7 79 1030.3 3.8 SE 6.9 0.0 0.0
15:22 10.2 6.7 79 1030.4 2.2 N 6.9 0.0 0.0
15:23 10.2 6.7 79 1030.4 3.8 SE 6.9 0.0 0.0
15:24 10.1 6.6 79 1030.4 3.8 N 6.9 0.0 0.0
15:25 10.1 6.6 79 1030.3 2.2 W 6.9 0.0 0.0
15:26 10.2 6.7 79 1030.3 3.1 NW 6.9 0.0 0.0
15:27 10.2 6.7 79 1030.4 3.8 SW 3.8 0.0 0.0
15:28 10.2 6.7 79 1030.3 3.1 NE 3.8 0.0 0.0
15:29 10.2 6.7 79 1030.4 6.0 N 6.0 0.0 0.0
15:30 10.3 6.8 79 1030.2 6.0 S 6.0 0.0 0.0
15:31 10.3 6.8 79 1030.3 4.5 S 6.0 0.0 0.0
15:32 10.3 6.8 79 1030.3 4.5 NE 6.0 0.0 0.0
15:33 10.4 6.9 79 1030.2 2.2 E 6.0 0.0 0.0
15:34 10.5 7.0 79 1030.2 2.2 NW 6.0 0.0 0.0
15:36 10.6 7.3 80 1030.1 2.2 E 6.0 0.0 0.0
15:37 10.6 7.1 79 1030.1 3.1 S 6.0 0.0 0.0
15:38 10.6 7.1 79 1030.4 2.2 NE 6.0 0.0 0.0
15:39 10.6 7.1 79 1030.3 4.5 N 6.0 0.0 0.0
15:40 10.6 7.1 79 1030.2 3.8 S 6.0 0.0 0.0
15:41 10.6 7.1 79 1030.3 3.1 SE 6.0 0.0 0.0
15:42 10.6 7.1 79 1030.2 3.1 E 7.6 0.0 0.0
15:43 10.6 7.1 79 1030.2 3.1 E 7.6 0.0 0.0
15:44 10.6 7.1 79 1030.2 3.1 S 7.6 0.0 0.0
15:45 10.6 7.1 79 1030.4 3.1 SSE 7.6 0.0 0.0
15:46 10.5 7.0 79 1030.3 5.4 SE 7.6 0.0 0.0
15:47 10.5 7.0 79 1030.0 5.4 SE 7.6 0.0 0.0
15:48 10.5 7.0 79 1030.0 4.5 S 7.6 0.0 0.0
15:49 10.4 6.9 79 1030.3 3.1 NE 7.6 0.0 0.0
15:50 10.4 6.9 79 1030.1 3.8 W 7.6 0.0 0.0
15:51 10.4 6.9 79 1030.1 3.1 S 7.6 0.0 0.0
15:53 10.3 6.8 79 1030.1 1.6 E 6.0 0.0 0.0
15:54 10.3 6.8 79 1030.0 3.1 NW 6.0 0.0 0.0
15:55 10.3 6.8 79 1030.3 3.1 NE 6.0 0.0 0.0
15:56 10.2 6.7 79 1030.1 2.2 S 6.0 0.0 0.0
15:57 10.2 6.7 79 1030.1 3.8 SE 6.0 0.0 0.0
15:58 10.2 6.7 79 1030.0 1.6 SW 6.0 0.0 0.0
15:59 10.2 6.7 79 1030.3 1.6 SE 3.8 0.0 0.0
16:00 10.2 6.7 79 1030.3 1.6 SE 3.8 0.0 0.0
16:01 10.2 6.7 79 1030.1 3.8 SW 3.8 0.0 0.0
16:02 10.2 6.7 79 1030.1 3.8 SW 3.8 0.0 0.0
16:03 10.2 6.7 79 1030.1 3.8 SW 3.8 0.0 0.0
16:04 10.2 6.7 79 1030.1 3.8 SW 3.8 0.0 0.0
16:05 10.2 6.7 79 1030.0 3.8 SW 3.8 0.0 0.0
16:06 10.1 6.6 79 1030.2 3.1 N 3.8 0.0 0.0
16:07 10.1 6.6 79 1030.2 2.2 NE 3.8 0.0 0.0
16:09 10.0 6.5 79 1030.0 3.1 N 3.8 0.0 0.0
16:10 10.0 6.5 79 1030.0 3.1 E 3.8 0.0 0.0
16:11 9.9 6.4 79 1029.9 1.6 S 3.8 0.0 0.0
16:12 9.9 6.4 79 1030.2 3.1 S 3.8 0.0 0.0
16:13 9.9 6.4 79 1030.1 3.1 NE 3.8 0.0 0.0
16:14 9.8 6.3 79 1030.1 2.2 NE 3.8 0.0 0.0
16:15 9.8 6.3 79 1030.1 1.6 NE 3.1 0.0 0.0
16:16 9.8 6.3 79 1030.1 1.6 NE 3.1 0.0 0.0
16:17 9.8 6.3 79 1030.1 1.6 SE 3.1 0.0 0.0
16:18 9.7 6.2 79 1029.8 3.1 E 3.1 0.0 0.0
16:19 9.7 6.2 79 1029.8 1.6 E 3.1 0.0 0.0
16:20 9.6 6.1 79 1029.8 2.2 NE 3.1 0.0 0.0
16:21 9.6 6.1 79 1029.8 2.2 W 3.1 0.0 0.0
16:22 9.6 6.1 79 1029.9 2.2 NE 3.1 0.0 0.0
16:23 9.5 6.0 79 1029.8 2.2 W 3.1 0.0 0.0
16:24 9.5 6.0 79 1029.9 3.8 SE 3.8 0.0 0.0
16:25 9.5 6.0 79 1029.8 3.1 NE 3.8 0.0 0.0
16:26 9.4 5.9 79 1029.7 1.6 N 3.8 0.0 0.0
16:27 9.4 5.9 79 1029.6 3.1 E 3.8 0.0 0.0
16:28 9.3 5.8 79 1029.8 3.1 N 3.8 0.0 0.0
16:29 9.3 5.8 79 1029.8 2.2 E 3.8 0.0 0.0
16:30 9.3 5.8 79 1029.8 3.8 NE 3.8 0.0 0.0
16:31 9.3 5.8 79 1029.7 3.8 NE 3.8 0.0 0.0
16:32 9.2 5.8 79 1029.6 1.6 N 3.8 0.0 0.0
16:33 9.2 5.8 79 1029.8 2.2 W 3.8 0.0 0.0
16:34 9.1 5.7 79 1029.8 1.6 N 3.8 0.0 0.0
16:35 9.1 5.7 79 1029.8 1.6 N 3.8 0.0 0.0
16:36 9.1 5.7 79 1029.7 1.6 N 3.8 0.0 0.0
16:37 9.0 5.6 79 1029.7 3.1 E 3.8 0.0 0.0
16:38 9.0 5.6 79 1029.9 2.2 N 3.8 0.0 0.0
16:39 8.9 5.5 79 1029.8 2.2 SE 3.8 0.0 0.0
16:40 8.9 5.5 79 1029.6 2.2 NE 3.8 0.0 0.0
16:41 8.8 5.4 79 1029.7 2.2 SE 3.8 0.0 0.0
16:42 8.8 5.4 79 1029.7 1.6 W 3.1 0.0 0.0
16:43 8.8 5.4 79 1029.8 1.6 NW 3.1 0.0 0.0
16:44 8.7 5.4 80 1029.8 1.6 E 3.1 0.0 0.0
16:45 8.7 5.4 80 1029.9 3.1 E 3.1 0.0 0.0
16:46 8.6 5.3 80 1029.8 1.6 S 3.1 0.0 0.0
16:47 8.6 5.3 80 1029.9 3.1 NW 3.1 0.0 0.0
16:48 8.5 5.2 80 1029.8 1.6 SW 3.1 0.0 0.0
16:49 8.5 5.2 80 1029.8 0.7 SW 3.1 0.0 0.0
16:50 8.4 5.2 80 1029.8 3.1 SE 3.1 0.0 0.0
16:51 8.4 5.2 80 1029.6 1.6 N 3.1 0.0 0.0
16:52 8.4 5.2 80 1029.8 0.7 NW 3.1 0.0 0.0
16:53 8.3 5.1 80 1029.8 1.6 NE 3.1 0.0 0.0
16:54 8.3 5.1 80 1029.8 3.1 SE 3.1 0.0 0.0
16:55 8.3 5.1 80 1029.6 0.7 W 3.1 0.0 0.0
16:56 8.3 5.1 80 1029.9 4.5 S 4.5 0.0 0.0
16:57 8.2 5.0 80 1029.6 1.6 NW 4.5 0.0 0.0
16:58 8.2 5.0 80 1029.7 1.6 NW 4.5 0.0 0.0
16:59 8.1 4.9 80 1029.7 1.6 N 4.5 0.0 0.0
17:00 8.1 4.9 80 1029.8 3.1 SE 4.5 0.0 0.0
17:01 8.1 4.9 80 1029.9 0.7 N 4.5 0.0 0.0
17:02 8.1 4.9 80 1029.6 0.7 N 4.5 0.0 0.0
17:03 8.0 4.8 80 1029.7 2.2 NE 4.5 0.0 0.0
17:04 8.0 4.8 80 1029.7 2.2 N 4.5 0.0 0.0
17:05 8.0 4.9 81 1029.7 0.7 SW 4.5 0.0 0.0
17:06 7.9 4.8 81 1029.8 1.6 NW 3.1 0.0 0.0
17:07 7.9 4.8 81 1029.7 1.6 NW 3.1 0.0 0.0
17:08 7.9 4.8 81 1029.6 1.6 NE 3.1 0.0 0.0
17:09 7.9 4.8 81 1029.9 2.2 NE 3.1 0.0 0.0
17:10 7.8 4.7 81 1029.8 1.6 N 2.2 0.0 0.0
17:11 7.8 4.7 81 1029.9 1.6 S 2.2 0.0 0.0
17:12 7.8 4.7 81 1029.9 1.6 NE 2.2 0.0 0.0
17:13 7.8 4.7 81 1029.6 1.6 NW 2.2 0.0 0.0
17:14 7.8 4.7 81 1029.7 1.6 SE 2.2 0.0 0.0
17:15 7.8 4.7 81 1029.6 3.1 E 3.1 0.0 0.0
17:16 7.8 4.7 81 1029.5 3.1 NE 3.1 0.0 0.0
17:17 7.7 4.6 81 1029.9 0.7 W 3.1 0.0 0.0
17:18 7.7 4.6 81 1029.7 0.7 W 3.1 0.0 0.0
17:19 7.7 4.6 81 1029.5 1.6 SW 3.1 0.0 0.0
17:20 7.7 4.6 81 1029.6 1.6 SW 3.1 0.0 0.0
17:21 7.6 4.6 81 1029.4 1.6 S 3.1 0.0 0.0
17:22 7.6 4.6 81 1029.6 1.6 NW 3.1 0.0 0.0
17:23 7.6 4.6 81 1029.8 3.1 E 3.1 0.0 0.0
17:24 7.6 4.6 81 1029.8 3.1 SW 3.1 0.0 0.0
17:25 7.6 4.6 81 1029.6 1.6 S 3.1 0.0 0.0
17:26 7.5 4.6 82 1029.6 1.6 N 3.1 0.0 0.0
17:27 7.5 4.6 82 1029.6 2.2 SW 3.1 0.0 0.0
17:28 7.5 4.6 82 1029.7 1.6 W 3.1 0.0 0.0
17:29 7.5 4.6 82 1029.6 1.6 SE 3.1 0.0 0.0
17:30 7.5 4.6 82 1029.5 2.2 E 3.1 0.0 0.0
17:31 7.5 4.6 82 1029.6 1.6 S 3.1 0.0 0.0
17:32 7.5 4.6 82 1029.6 1.6 SW 3.1 0.0 0.0
17:33 7.4 5.7 89 1029.7 0.7 NW 3.1 0.0 0.0
17:34 7.4 5.7 89 1029.6 1.6 W 3.1 0.0 0.0
17:35 7.4 5.7 89 1029.4 2.2 SE 3.1 0.0 0.0
17:36 7.4 5.7 89 1029.4 2.2 SE 3.1 0.0 0.0
17:37 7.4 5.7 89 1029.6 1.6 S 3.1 0.0 0.0
17:38 7.4 5.7 89 1029.5 1.6 NE 3.1 0.0 0.0
17:39 7.4 5.7 89 1029.6 1.6 N 3.1 0.0 0.0
17:40 7.3 5.6 89 1029.5 1.6 S 3.1 0.0 0.0
17:41 7.3 5.6 89 1029.5 2.2 NE 3.1 0.0 0.0
17:42 7.3 5.6 89 1029.4 3.1 NE 3.1 0.0 0.0
17:43 7.3 5.6 89 1029.6 1.6 NE 3.1 0.0 0.0
17:44 7.3 5.6 89 1029.5 1.6 S 3.1 0.0 0.0
17:45 7.2 5.5 89 1029.5 1.6 NE 3.1 0.0 0.0
17:46 7.2 5.5 89 1029.7 1.6 N 3.1 0.0 0.0
17:47 7.2 5.5 89 1029.4 3.1 N 3.1 0.0 0.0
17:48 7.2 5.5 89 1029.6 1.6 S 3.1 0.0 0.0
17:49 7.2 5.5 89 1029.3 0.7 S 3.1 0.0 0.0
17:50 7.2 5.5 89 1029.2 1.6 E 3.1 0.0 0.0
17:51 7.1 5.4 89 1029.5 1.6 NE 3.1 0.0 0.0
17:52 7.2 5.5 89 1029.6 1.6 NE 3.1 0.0 0.0
17:53 7.1 5.4 89 1029.5 0.7 NE 3.1 0.0 0.0
17:54 7.1 5.4 89 1029.3 1.6 NW 3.1 0.0 0.0
17:55 7.1 5.4 89 1029.3 1.6 NW 3.1 0.0 0.0
17:56 7.1 5.4 89 1029.2 0.7 NW 3.1 0.0 0.0
17:57 7.1 5.4 89 1029.4 0.7 NW 3.1 0.0 0.0
17:58 7.1 5.4 89 1029.5 0.0 W 2.2 0.0 0.0
17:59 7.0 5.3 89 1029.5 0.7 NW 2.2 0.0 0.0
18:00 7.0 5.3 89 1029.5 2.2 SE 2.2 0.0 0.0
18:01 7.0 5.3 89 1029.4 0.7 E 2.2 0.0 0.0
18:02 7.0 5.3 89 1029.3 0.7 E 2.2 0.0 0.0
18:03 7.0 5.3 89 1029.4 2.2 S 2.2 0.0 0.0
18:04 7.0 5.3 89 1029.4 1.6 S 2.2 0.0 0.0
18:05 7.0 5.3 89 1029.5 2.2 S 2.2 0.0 0.0
18:06 6.9 5.2 89 1029.5 1.6 S 2.2 0.0 0.0
18:07 6.9 5.2 89 1029.5 1.6 SE 2.2 0.0 0.0
18:08 6.9 5.2 89 1029.3 1.6 SE 2.2 0.0 0.0
18:09 6.9 5.2 89 1029.2 0.7 SE 2.2 0.0 0.0
18:10 6.9 5.2 89 1029.3 0.0 SE 2.2 0.0 0.0
18:11 6.9 5.2 89 1029.4 1.6 S 2.2 0.0 0.0
18:12 6.9 5.2 89 1029.4 1.6 S 2.2 0.0 0.0
18:13 6.9 5.2 89 1029.4 0.7 S 2.2 0.0 0.0
18:14 6.9 5.4 90 1029.4 0.7 SE 2.2 0.0 0.0
18:15 6.9 5.4 90 1029.3 0.7 SE 2.2 0.0 0.0
18:16 6.9 5.4 90 1029.3 0.7 NE 2.2 0.0 0.0
18:17 6.8 5.3 90 1029.1 0.0 NE 1.6 0.0 0.0
18:18 6.8 5.3 90 1029.2 0.0 NE 1.6 0.0 0.0
18:19 6.8 5.3 90 1029.2 0.0 NE 1.6 0.0 0.0
18:20 6.8 5.3 90 1029.4 0.0 NE 1.6 0.0 0.0
18:21 6.8 5.3 90 1029.2 0.0 NW 1.6 0.0 0.0
18:22 6.7 5.2 90 1029.2 0.7 SE 1.6 0.0 0.0
18:23 6.7 5.2 90 1029.1 0.7 NW 0.7 0.0 0.0
18:24 6.7 5.2 90 1029.5 0.7 NW 0.7 0.0 0.0
18:25 6.7 5.2 90 1029.2 0.0 NW 0.7 0.0 0.0
18:26 6.7 5.2 90 1029.3 0.7 NE 0.7 0.0 0.0
18:27 6.7 5.2 90 1029.3 0.0 NE 0.7 0.0 0.0
18:28 6.7 5.2 90 1029.3 0.0 NE 0.7 0.0 0.0
18:29 6.6 5.1 90 1029.2 0.7 N 0.7 0.0 0.0
18:30 6.6 5.1 90 1029.2 0.7 N 0.7 0.0 0.0
18:31 6.6 5.1 90 1029.3 0.7 SW 0.7 0.0 0.0
18:32 6.6 5.1 90 1029.4 0.7 NW 0.7 0.0 0.0
18:33 6.6 5.1 90 1029.4 0.7 NW 0.7 0.0 0.0
18:34 6.6 5.1 90 1029.1 0.0 N 0.7 0.0 0.0
18:35 6.6 5.1 90 1029.1 0.7 N 0.7 0.0 0.0
18:37 6.5 5.0 90 1029.3 0.7 NE 0.7 0.0 0.0
18:38 6.5 5.0 90 1029.1 0.0 NE 0.7 0.0 0.0
18:39 6.5 5.0 90 1029.3 0.0 NE 0.7 0.0 0.0
18:40 6.5 5.0 90 1029.1 0.0 NE 0.7 0.0 0.0
18:41 6.5 5.0 90 1029.3 0.0 NE 0.7 0.0 0.0
18:42 6.4 4.9 90 1029.2 0.7 S 0.7 0.0 0.0
18:43 6.4 4.9 90 1029.3 1.6 S 1.6 0.0 0.0
18:44 6.4 4.9 90 1029.3 1.6 S 1.6 0.0 0.0
18:45 6.4 4.9 90 1029.4 0.7 SE 1.6 0.0 0.0
18:46 6.4 4.9 90 1029.2 0.0 SE 1.6 0.0 0.0
18:47 6.3 4.8 90 1029.2 0.0 SE 1.6 0.0 0.0
18:48 6.3 4.8 90 1029.4 0.0 SE 1.6 0.0 0.0
18:49 6.3 4.8 90 1029.3 0.0 SE 1.6 0.0 0.0
18:50 6.3 4.8 90 1029.1 0.0 NW 1.6 0.0 0.0
18:51 6.3 4.8 90 1029.4 0.0 NW 1.6 0.0 0.0
18:53 6.2 4.7 90 1029.3 0.0 NW 1.6 0.0 0.0
18:54 6.2 4.7 90 1029.3 0.0 NW 1.6 0.0 0.0
18:55 6.2 4.7 90 1029.3 0.0 NW 0.0 0.0 0.0
18:56 6.2 4.7 90 1029.3 0.0 NW 0.0 0.0 0.0
18:57 6.2 4.7 90 1029.2 0.0 NW 0.0 0.0 0.0
18:58 6.2 4.7 90 1029.3 0.0 NE 0.0 0.0 0.0
18:59 6.2 4.7 90 1029.3 0.0 NE 0.0 0.0 0.0
19:00 6.2 4.7 90 1029.4 0.0 NE 0.0 0.0 0.0
19:01 6.2 4.7 90 1029.6 0.0 NE 0.0 0.0 0.0
19:02 6.2 4.7 90 1029.3 0.0 NE 0.0 0.0 0.0
19:03 6.2 4.7 90 1029.4 0.0 NE 0.0 0.0 0.0
19:04 6.2 4.7 90 1029.2 0.0 NE 0.0 0.0 0.0
19:05 6.2 4.7 90 1029.3 0.0 NE 0.0 0.0 0.0
19:06 6.2 4.7 90 1029.1 0.0 NE 0.0 0.0 0.0
19:07 6.2 4.7 90 1029.3 0.0 NE 0.0 0.0 0.0
19:09 6.2 4.7 90 1029.0 0.0 NE 0.0 0.0 0.0
19:10 6.2 4.7 90 1029.2 0.0 NE 0.0 0.0 0.0
19:11 6.2 4.7 90 1029.2 0.0 NE 0.0 0.0 0.0
19:12 6.2 4.7 90 1029.2 0.0 NE 0.0 0.0 0.0
19:13 6.2 4.7 90 1029.1 0.0 NE 0.0 0.0 0.0
19:14 6.3 4.8 90 1029.1 0.0 NE 0.0 0.0 0.0
19:15 6.3 4.9 91 1029.1 0.0 NE 0.0 0.0 0.0
19:16 6.3 4.9 91 1029.1 0.0 NE 0.0 0.0 0.0
19:17 6.3 4.9 91 1029.2 0.0 NE 0.0 0.0 0.0
19:18 6.3 4.9 91 1029.2 0.0 NE 0.0 0.0 0.0
19:19 6.3 4.9 91 1029.2 0.0 NE 0.0 0.0 0.0
19:20 6.3 4.9 91 1029.2 0.0 NE 0.0 0.0 0.0
19:21 6.2 4.8 91 1029.0 0.0 NE 0.0 0.0 0.0
19:22 6.2 4.8 91 1029.1 0.0 NE 0.0 0.0 0.0
19:23 6.2 4.8 91 1029.1 0.0 E 0.0 0.0 0.0
19:24 6.2 4.8 91 1029.2 0.0 NE 0.0 0.0 0.0
19:25 6.2 4.8 91 1029.0 0.0 NE 0.0 0.0 0.0
19:26 6.2 4.8 91 1028.9 0.0 NE 0.0 0.0 0.0
19:28 6.2 4.8 91 1029.0 0.0 NW 0.7 0.0 0.0
19:29 6.2 4.8 91 1028.9 0.7 NW 0.7 0.0 0.0
19:30 6.2 4.8 91 1029.0 0.0 NW 0.7 0.0 0.0
19:31 6.2 4.8 91 1028.9 0.0 NW 0.7 0.0 0.0
19:32 6.1 4.7 91 1029.0 0.0 NW 0.7 0.0 0.0
19:33 6.0 4.6 91 1028.9 0.0 NW 0.7 0.0 0.0
19:34 5.9 4.5 91 1028.9 0.0 NW 0.7 0.0 0.0
19:35 5.9 4.5 91 1028.9 0.0 NW 0.7 0.0 0.0
19:36 5.9 4.5 91 1029.0 0.0 NW 0.7 0.0 0.0
19:37 5.8 4.4 91 1029.0 0.0 NW 0.7 0.0 0.0
19:38 5.7 4.3 91 1028.9 0.0 NW 0.7 0.0 0.0
19:39 5.7 4.3 91 1029.0 0.0 E 0.7 0.0 0.0
19:40 5.7 4.3 91 1028.8 0.7 NE 0.7 0.0 0.0
19:41 5.7 4.2 90 1028.7 0.0 NE 0.7 0.0 0.0
19:42 5.7 4.2 90 1028.8 0.7 NE 0.7 0.0 0.0
19:43 5.7 4.2 90 1028.9 0.7 NE 0.7 0.0 0.0
19:44 5.7 4.2 90 1028.9 0.7 NE 0.7 0.0 0.0
19:45 5.6 4.1 90 1028.8 0.7 NE 0.7 0.0 0.0
19:46 5.6 4.1 90 1028.8 0.0 NE 0.7 0.0 0.0
19:47 5.6 4.1 90 1028.8 0.7 NE 0.7 0.0 0.0
19:48 5.6 4.1 90 1028.9 0.0 NE 0.7 0.0 0.0
19:49 5.7 4.2 90 1028.7 0.0 NE 0.7 0.0 0.0
19:50 5.7 4.3 91 1028.8 0.7 S 0.7 0.0 0.0
19:51 5.6 4.2 91 1028.8 0.0 S 0.7 0.0 0.0
19:52 5.6 4.2 91 1028.8 0.0 S 0.7 0.0 0.0
19:53 5.6 4.2 91 1028.6 0.7 S 0.7 0.0 0.0
19:54 5.7 4.3 91 1028.7 0.0 S 0.7 0.0 0.0
19:55 5.6 4.2 91 1028.8 0.0 S 0.7 0.0 0.0
19:56 5.6 4.2 91 1028.7 0.7 S 0.7 0.0 0.0
19:57 5.6 4.2 91 1029.0 0.7 S 0.7 0.0 0.0
19:58 5.5 4.1 91 1028.7 0.7 S 0.7 0.0 0.0
19:59 5.5 4.1 91 1028.7 0.0 S 0.7 0.0 0.0
20:00 5.5 4.1 91 1028.5 0.7 S 0.7 0.0 0.0
20:01 5.5 4.1 91 1028.7 0.7 NE 0.7 0.0 0.0
20:02 5.5 4.1 91 1028.8 0.7 S 0.7 0.0 0.0
20:03 5.5 4.1 91 1028.7 0.7 S 0.7 0.0 0.0
20:04 5.5 4.1 91 1028.6 0.7 S 0.7 0.0 0.0
20:05 5.5 4.1 91 1028.5 0.7 S 0.7 0.0 0.0
20:06 5.5 4.1 91 1028.6 0.0 S 0.7 0.0 0.0
20:07 5.5 4.1 91 1028.5 0.0 S 0.7 0.0 0.0
20:08 5.5 4.1 91 1028.4 0.0 S 0.7 0.0 0.0
20:09 5.5 4.1 91 1028.5 0.0 S 0.7 0.0 0.0
20:10 5.5 4.1 91 1028.6 0.7 S 0.7 0.0 0.0
20:11 5.5 4.1 91 1028.5 0.0 S 0.7 0.0 0.0
20:12 5.5 4.1 91 1028.4 0.0 S 0.7 0.0 0.0
20:13 5.6 4.2 91 1028.5 0.0 S 0.7 0.0 0.0
20:14 5.6 4.2 91 1028.4 0.7 S 0.7 0.0 0.0
20:15 5.6 4.2 91 1028.7 0.7 S 0.7 0.0 0.0
20:16 5.6 4.2 91 1028.5 1.6 S 1.6 0.0 0.0
20:17 5.7 4.3 91 1028.5 1.6 S 1.6 0.0 0.0
20:18 5.7 4.3 91 1028.5 0.7 SE 1.6 0.0 0.0
20:19 5.7 4.3 91 1028.6 0.7 SE 1.6 0.0 0.0
20:20 5.7 4.3 91 1028.4 0.7 SE 1.6 0.0 0.0
20:21 5.7 4.3 91 1028.5 0.7 SE 1.6 0.0 0.0
20:22 5.7 4.3 91 1028.5 1.6 S 1.6 0.0 0.0
20:23 5.7 4.3 91 1028.6 0.7 S 1.6 0.0 0.0
20:24 5.7 4.3 91 1028.8 0.0 S 1.6 0.0 0.0
20:25 5.7 4.3 91 1028.7 0.0 S 1.6 0.0 0.0
20:26 5.7 4.3 91 1028.7 0.0 S 1.6 0.0 0.0
20:27 5.7 4.5 92 1028.6 0.7 S 1.6 0.0 0.0
20:28 5.7 4.5 92 1028.7 0.7 S 1.6 0.0 0.0
20:29 5.8 4.6 92 1028.4 0.0 NE 1.6 0.0 0.0
20:30 5.8 4.6 92 1028.4 0.0 NE 1.6 0.0 0.0
20:31 5.8 4.6 92 1028.5 0.0 NE 1.6 0.0 0.0
20:32 5.8 4.6 92 1028.5 0.0 NE 1.6 0.0 0.0
20:33 5.9 4.7 92 1028.5 0.0 NE 0.7 0.0 0.0
20:34 5.9 4.7 92 1028.4 0.0 NE 0.7 0.0 0.0
20:35 6.0 4.8 92 1028.5 0.0 NE 0.7 0.0 0.0
20:36 6.0 4.8 92 1028.4 0.0 NE 0.7 0.0 0.0
20:37 6.1 4.9 92 1028.4 1.6 S 1.6 0.0 0.0
20:38 6.1 4.9 92 1028.5 1.6 S 1.6 0.0 0.0
20:39 6.2 5.0 92 1028.6 1.6 SE 1.6 0.0 0.0
20:40 6.2 5.0 92 1028.6 1.6 SE 1.6 0.0 0.0
20:41 6.2 5.2 93 1028.5 2.2 SSE 2.2 0.0 0.0
20:42 6.3 5.3 93 1028.6 2.2 S 2.2 0.0 0.0
20:43 6.3 5.3 93 1028.6 2.2 S 2.2 0.0 0.0
20:44 6.3 5.3 93 1028.6 2.2 S 2.2 0.0 0.0
20:45 6.4 5.4 93 1028.7 2.2 S 2.2 0.0 0.0
20:46 6.4 5.4 93 1028.5 2.2 E 2.2 0.0 0.0
20:47 6.5 5.5 93 1028.5 0.7 NE 2.2 0.0 0.0
20:48 6.5 5.5 93 1028.7 0.0 NE 2.2 0.0 0.0
20:49 6.6 5.6 93 1028.6 1.6 N 2.2 0.0 0.0
20:50 6.6 5.6 93 1028.4 3.1 SE 3.1 0.0 0.0
20:51 6.6 5.6 93 1028.5 2.2 S 3.1 0.0 0.0
20:52 6.6 5.6 93 1028.4 2.2 S 3.1 0.0 0.0
20:53 6.7 5.8 94 1028.5 2.2 S 3.1 0.0 0.0
20:54 6.7 5.8 94 1028.4 1.6 S 3.1 0.0 0.0
20:55 6.8 5.9 94 1028.4 1.6 S 3.1 0.0 0.0
20:56 6.8 5.9 94 1028.4 2.2 S 3.1 0.0 0.0
20:57 6.8 5.9 94 1028.2 1.6 S 3.1 0.0 0.0
20:58 6.8 5.9 94 1028.4 3.1 E 3.1 0.0 0.0
20:59 6.8 5.9 94 1028.4 3.1 E 3.1 0.0 0.0
21:00 6.8 5.9 94 1028.4 3.1 E 3.1 0.0 0.0
21:01 6.9 6.0 94 1028.4 2.2 SE 3.1 0.0 0.0
21:02 6.9 6.0 94 1028.2 2.2 SE 3.1 0.0 0.0
21:03 6.9 6.0 94 1028.3 2.2 SE 3.1 0.0 0.0
21:04 6.9 6.0 94 1028.4 2.2 SE 3.1 0.0 0.0
21:05 6.9 6.0 94 1028.3 2.2 SE 3.1 0.0 0.0
21:06 6.9 6.0 94 1028.3 2.2 SE 3.1 0.0 0.0
21:07 6.9 6.0 94 1028.4 2.2 SE 3.1 0.0 0.0
21:09 7.1 6.4 95 1028.4 3.8 SE 4.5 0.0 0.0
21:10 7.1 6.4 95 1028.3 3.8 SE 4.5 0.0 0.0
21:11 7.2 6.5 95 1028.3 3.8 S 4.5 0.0 0.0
21:12 7.2 6.5 95 1028.2 3.1 S 4.5 0.0 0.0
21:13 7.2 6.5 95 1028.1 3.1 S 4.5 0.0 0.0
21:14 7.2 6.5 95 1028.2 3.1 SE 4.5 0.0 0.0
21:15 7.2 6.5 95 1028.2 4.5 S 4.5 0.0 0.0
21:16 7.3 6.6 95 1028.2 4.5 SE 4.5 0.0 0.0
21:17 7.3 6.6 95 1028.3 3.8 S 4.5 0.0 0.0
21:18 7.3 6.6 95 1028.3 3.8 SSE 4.5 0.0 0.0
21:19 7.3 6.6 95 1028.3 3.8 SSE 4.5 0.0 0.0
21:20 7.3 6.6 95 1028.2 3.8 SSE 4.5 0.0 0.0
21:21 7.3 6.6 95 1028.3 4.5 SW 4.5 0.0 0.0
21:22 7.4 6.7 95 1028.1 4.5 SE 4.5 0.0 0.0
21:23 7.4 6.7 95 1028.3 4.5 S 4.5 0.0 0.0
21:24 7.4 6.7 95 1028.1 3.8 SE 4.5 0.0 0.0
21:25 7.4 6.7 95 1028.3 3.1 S 4.5 0.0 0.0
21:26 7.4 6.8 96 1028.2 3.8 SW 4.5 0.0 0.0
21:27 7.4 6.8 96 1028.1 6.0 S 6.0 0.0 0.0
21:28 7.4 6.8 96 1028.1 4.5 S 6.0 0.0 0.0
21:29 7.5 6.0 90 1027.9 4.5 SSW 6.0 0.0 0.0
21:30 7.5 6.0 90 1028.1 5.4 S 6.0 0.0 0.0
21:31 7.5 6.0 90 1028.2 4.5 SW 6.0 0.0 0.0
21:32 7.5 6.1 91 1028.1 4.5 SE 6.0 0.0 0.0
21:33 7.5 6.1 91 1028.3 4.5 SW 6.0 0.0 0.0
21:34 7.5 6.1 91 1028.0 4.5 S 6.0 0.0 0.0
21:35 7.5 6.1 91 1028.0 4.5 S 6.0 0.0 0.0
21:36 7.5 6.1 91 1028.0 4.5 S 6.0 0.0 0.0
21:37 7.5 6.1 91 1027.9 4.5 S 6.0 0.0 0.0
21:38 7.5 6.1 91 1028.1 5.4 S 5.4 0.0 0.0
21:39 7.5 6.1 91 1028.1 3.8 S 5.4 0.0 0.0
21:40 7.5 6.1 91 1028.0 3.8 S 5.4 0.0 0.0
21:41 7.6 6.2 91 1028.0 3.8 SE 5.4 0.0 0.0
21:42 7.6 6.2 91 1028.0 3.8 S 5.4 0.0 0.0
21:43 7.6 6.2 91 1028.0 3.8 S 5.4 0.0 0.0
21:44 7.6 6.2 91 1028.1 4.5 SE 5.4 0.0 0.0
21:45 7.6 6.2 91 1028.1 4.5 S 5.4 0.0 0.0
21:46 7.6 6.2 91 1027.9 6.0 S 6.0 0.0 0.0
21:47 7.6 6.2 91 1027.9 6.0 S 6.0 0.0 0.0
21:48 7.6 6.2 91 1027.9 4.5 S 6.0 0.0 0.0
21:49 7.6 6.2 91 1028.2 3.8 S 6.0 0.0 0.0
21:50 7.6 6.2 91 1027.8 3.1 S 6.0 0.0 0.0
21:51 7.6 6.2 91 1027.7 6.0 S 6.0 0.0 0.0
21:52 7.6 6.2 91 1027.7 6.0 S 6.0 0.0 0.0
21:53 7.6 6.2 91 1028.0 5.4 S 6.0 0.0 0.0
21:54 7.6 6.2 91 1027.9 5.4 S 6.0 0.0 0.0
21:55 7.6 6.2 91 1028.0 5.4 SW 6.0 0.0 0.0
21:56 7.6 6.2 91 1027.8 4.5 S 6.0 0.0 0.0
21:57 7.6 6.2 91 1027.8 6.0 S 6.0 0.0 0.0
21:58 7.6 6.2 91 1028.0 6.0 SW 6.0 0.0 0.0
21:59 7.6 6.2 91 1027.6 6.0 S 6.0 0.0 0.0
22:00 7.6 6.2 91 1028.0 5.4 SE 6.0 0.0 0.0
22:01 7.6 6.2 91 1027.8 5.4 S 6.0 0.0 0.0
22:02 7.6 6.2 91 1027.9 3.8 S 6.0 0.0 0.0
22:03 7.7 6.3 91 1028.0 4.5 SSE 6.0 0.0 0.0
22:04 7.7 6.3 91 1027.8 6.0 SE 6.0 0.0 0.0
22:05 7.7 6.3 91 1027.7 3.1 S 6.0 0.0 0.0
22:06 7.7 6.3 91 1027.7 3.8 SE 6.0 0.0 0.0
22:07 7.7 6.3 91 1027.6 3.8 S 6.0 0.0 0.0
22:08 7.7 6.3 91 1027.8 3.8 S 6.0 0.0 0.0
22:09 7.7 6.3 91 1027.7 3.8 S 6.0 0.0 0.0
22:10 7.7 6.3 91 1027.8 3.8 S 6.0 0.0 0.0
22:11 7.7 6.3 91 1027.8 4.5 SE 6.0 0.0 0.0
22:12 7.7 6.3 91 1027.6 4.5 S 6.0 0.0 0.0
22:13 7.7 6.3 91 1027.6 7.6 S 7.6 0.0 0.0
22:14 7.7 6.3 91 1027.9 6.0 S 7.6 0.0 0.0
22:15 7.7 6.3 91 1027.6 4.5 SW 7.6 0.0 0.0
22:16 7.7 6.3 91 1027.6 5.4 SW 7.6 0.0 0.0
22:17 7.7 6.3 91 1027.7 6.9 S 7.6 0.0 0.0
22:18 7.7 6.3 91 1027.4 4.5 S 7.6 0.0 0.0
22:19 7.7 6.3 91 1027.6 3.8 SSE 7.6 0.0 0.0
22:20 7.7 6.3 91 1027.6 3.1 S 7.6 0.0 0.0
22:21 7.7 6.3 91 1027.8 3.8 S 7.6 0.0 0.0
22:22 7.7 6.3 91 1027.5 5.4 SSE 7.6 0.0 0.0
22:23 7.7 6.2 90 1027.5 5.4 S 7.6 0.0 0.0
22:24 7.7 6.2 90 1027.5 5.4 S 6.9 0.0 0.0
22:25 7.7 6.2 90 1027.5 4.5 SE 6.9 0.0 0.0
22:26 7.7 6.2 90 1027.5 4.5 S 6.9 0.0 0.0
22:27 7.7 6.2 90 1027.5 4.5 S 6.9 0.0 0.0
22:28 7.7 6.2 90 1027.5 3.8 S 6.9 0.0 0.0
22:29 7.7 6.2 90 1027.6 4.5 S 5.4 0.0 0.0
22:30 7.7 6.2 90 1027.5 4.5 S 5.4 0.0 0.0
22:31 7.7 6.2 90 1027.3 3.1 SW 5.4 0.0 0.0
22:32 7.7 6.2 90 1027.4 3.1 SW 5.4 0.0 0.0
22:33 7.7 6.2 90 1027.4 2.2 WSW 5.4 0.0 0.0
22:34 7.7 6.2 90 1027.5 3.8 S 4.5 0.0 0.0
22:35 7.7 6.2 90 1027.5 3.8 S 4.5 0.0 0.0
22:36 7.6 6.1 90 1027.3 3.1 S 4.5 0.0 0.0
22:37 7.6 6.1 90 1027.2 2.2 S 4.5 0.0 0.0
22:38 7.6 6.1 90 1027.5 2.2 SW 4.5 0.0 0.0
22:39 7.6 6.1 90 1027.3 3.1 S 4.5 0.0 0.0
22:40 7.6 6.1 90 1027.7 2.2 SW 3.8 0.0 0.0
22:41 7.6 6.1 90 1027.5 3.1 S 3.8 0.0 0.0
22:42 7.6 6.1 90 1027.6 3.1 SW 3.8 0.0 0.0
22:43 7.6 6.1 90 1027.4 3.1 SW 3.8 0.0 0.0
22:44 7.6 6.1 90 1027.1 2.2 SW 3.8 0.0 0.0
22:45 7.6 6.1 90 1027.6 2.2 SW 3.8 0.0 0.0
22:46 7.6 6.1 90 1027.4 2.2 SW 3.1 0.0 0.0
22:47 7.6 6.1 90 1027.5 2.2 SW 3.1 0.0 0.0
22:48 7.6 6.1 90 1027.4 2.2 SW 3.1 0.0 0.0
22:49 7.6 6.1 90 1027.5 3.8 SSW 3.8 0.0 0.0
22:50 7.5 6.0 90 1027.4 2.2 SW 3.8 0.0 0.0
22:51 7.5 6.0 90 1027.4 2.2 S 3.8 0.0 0.0
22:52 7.5 6.0 90 1027.5 3.1 S 3.8 0.0 0.0
22:53 7.5 6.0 90 1027.4 3.1 SW 3.8 0.0 0.0
22:54 7.5 6.0 90 1027.5 3.1 SW 3.8 0.0 0.0
22:55 7.5 6.0 90 1027.2 3.8 W 3.8 0.0 0.0
22:56 7.4 6.7 95 1027.3 3.8 S 3.8 0.0 0.0
22:57 7.4 6.7 95 1027.2 3.8 WSW 3.8 0.0 0.0
22:58 7.4 6.7 95 1027.4 3.8 S 3.8 0.0 0.0
22:59 7.4 6.7 95 1027.5 3.8 SE 3.8 0.0 0.0
23:00 7.4 6.7 95 1027.1 3.8 S 3.8 0.0 0.0
23:01 7.4 6.7 95 1027.4 3.8 S 3.8 0.0 0.0
23:02 7.4 6.7 95 1027.3 3.8 S 3.8 0.0 0.0
23:03 7.4 6.7 95 1027.3 3.8 S 3.8 0.0 0.0
23:04 7.4 6.7 95 1027.3 3.8 S 3.8 0.0 0.0
23:05 7.4 6.7 95 1027.1 3.8 S 3.8 0.0 0.0
23:06 7.3 6.6 95 1027.3 5.4 S 5.4 0.0 0.0
23:07 7.3 6.6 95 1027.2 4.5 S 5.4 0.0 0.0
23:08 7.3 6.6 95 1027.3 6.0 SSW 6.0 0.0 0.0
23:09 7.2 6.5 95 1027.2 4.5 S 6.0 0.0 0.0
23:10 7.2 6.5 95 1027.2 7.6 WSW 7.6 0.0 0.0
23:11 7.2 6.5 95 1027.3 6.0 SSW 7.6 0.0 0.0
23:12 7.2 6.5 95 1027.3 5.4 SW 7.6 0.0 0.0
23:13 7.1 6.4 95 1027.5 5.4 SW 7.6 0.0 0.0
23:14 7.0 6.1 94 1027.2 4.5 S 7.6 0.0 0.0
23:15 7.0 6.1 94 1027.2 5.4 SSE 7.6 0.0 0.0
23:16 7.0 6.1 94 1027.2 5.4 S 7.6 0.0 0.0
23:17 7.0 6.1 94 1027.2 5.4 S 7.6 0.0 0.0
23:18 6.9 6.0 94 1027.4 4.5 S 7.6 0.0 0.0
23:19 6.9 6.0 94 1027.4 4.5 S 7.6 0.0 0.0
23:20 6.9 6.0 94 1027.2 5.4 S 7.6 0.0 0.0
23:21 6.9 6.0 94 1027.3 5.4 S 6.0 0.0 0.0
23:22 6.8 5.9 94 1027.4 6.0 S 6.0 0.0 0.0
23:23 6.9 6.0 94 1027.1 5.4 S 6.0 0.0 0.0
23:24 6.8 5.9 94 1027.1 5.4 S 6.0 0.0 0.0
23:25 6.8 5.9 94 1027.2 6.0 S 6.0 0.0 0.0
23:26 6.8 5.9 94 1027.2 6.0 S 6.0 0.0 0.0
23:27 6.8 5.9 94 1027.3 6.0 S 6.0 0.0 0.0
23:28 6.8 5.9 94 1027.4 4.5 SW 6.0 0.0 0.0
23:29 6.8 5.9 94 1027.3 6.0 S 6.0 0.0 0.0
23:30 6.7 5.8 94 1027.2 6.0 S 6.0 0.0 0.0
23:31 6.7 5.8 94 1027.1 6.0 S 6.0 0.0 0.0
23:32 6.7 5.8 94 1027.1 6.0 SW 6.0 0.0 0.0
23:33 6.7 5.8 94 1027.2 6.9 SW 6.9 0.0 0.0
23:34 6.7 5.6 93 1027.1 6.0 S 6.9 0.0 0.0
23:35 6.7 5.6 93 1027.1 6.9 SW 6.9 0.0 0.0
23:36 6.7 5.6 93 1027.4 6.0 S 6.9 0.0 0.0
23:37 6.7 5.6 93 1027.0 4.5 NE 6.9 0.0 0.0
23:38 6.7 5.6 93 1027.2 4.5 SW 6.9 0.0 0.0
23:39 6.7 5.6 93 1027.2 5.4 S 6.9 0.0 0.0
23:40 6.7 5.6 93 1027.2 4.5 S 6.9 0.0 0.0
23:41 6.7 5.6 93 1027.2 3.8 S 6.9 0.0 0.0
23:42 6.7 5.6 93 1027.0 3.1 SW 6.9 0.0 0.0
23:44 6.7 5.6 93 1027.1 4.5 S 6.9 0.0 0.0
23:45 6.7 5.6 93 1027.1 3.8 S 6.0 0.0 0.0
23:46 6.7 5.6 93 1027.1 4.5 W 6.0 0.0 0.0
23:47 6.7 5.6 93 1026.9 3.8 SW 5.4 0.0 0.0
23:48 6.7 5.6 93 1027.1 4.5 SW 5.4 0.0 0.0
23:49 6.7 5.6 93 1027.0 3.8 SSW 4.5 0.0 0.0
23:50 6.6 5.6 93 1026.9 3.1 SSW 4.5 0.0 0.0
23:51 6.6 5.6 93 1026.9 3.1 SSW 4.5 0.0 0.0
23:52 6.6 5.6 93 1026.9 3.8 SW 4.5 0.0 0.0
23:53 6.6 5.6 93 1026.7 3.8 S 4.5 0.0 0.0
23:54 6.6 5.6 93 1027.0 3.1 SW 4.5 0.0 0.0
23:55 6.6 5.6 93 1027.2 3.1 S 4.5 0.0 0.0
23:56 6.6 5.6 93 1027.0 3.1 W 4.5 0.0 0.0
23:57 6.6 5.6 93 1026.9 3.1 S 4.5 0.0 0.0
23:58 6.6 5.6 93 1027.0 3.1 S 4.5 0.0 0.0
23:59 6.6 5.6 93 1027.0 2.2 S 3.8 0.0 0.0

 

 

UK - WEATHER STATION TOPSITES - UK World Weather Websites

Copyright © Carnkie Weather 2009 - 2022.